Wetterdaten: Donnerstag, 10.01.2013
Datum Zeit Temp. Aussen +5cm Feuchte Auss BlattFeu 1 Luftdruck Regen Sonnenschein T Regendauer UV Solar Windben
10.01.2013 00:03 5,1 C 4,0 C 100 % 15 lf 1016,7 hPa 0,0 l/m 0 min 2 min 0,0 UV-I 0 W/m 0,0 km/h (0 Bft)
10.01.2013 00:04 5,1 C 4,0 C 100 % 15 lf 1016,7 hPa 0,0 l/m 0 min 1 min 0,0 UV-I 0 W/m 0,0 km/h (0 Bft)
10.01.2013 00:06 5,1 C 4,0 C 100 % 15 lf 1016,6 hPa 0,0 l/m 0 min 2 min 0,0 UV-I 0 W/m 2,6 km/h (1 Bft)
10.01.2013 00:08 5,1 C 4,0 C 100 % 15 lf 1016,5 hPa 0,0 l/m 0 min 2 min 0,0 UV-I 0 W/m 0,0 km/h (0 Bft)
10.01.2013 00:10 5,1 C 3,4 C 100 % 15 lf 1016,5 hPa 0,0 l/m 0 min 2 min 0,0 UV-I 0 W/m 0,0 km/h (0 Bft)
10.01.2013 00:12 5,1 C 3,4 C 100 % 15 lf 1016,4 hPa 0,0 l/m 0 min 2 min 0,0 UV-I 0 W/m 0,0 km/h (0 Bft)
10.01.2013 00:14 5,0 C 3,4 C 100 % 15 lf 1016,4 hPa 0,0 l/m 0 min 2 min 0,0 UV-I 0 W/m 0,0 km/h (0 Bft)
10.01.2013 00:16 5,0 C 3,4 C 100 % 15 lf 1016,5 hPa 0,0 l/m 0 min 2 min 0,0 UV-I 0 W/m 2,6 km/h (1 Bft)
10.01.2013 00:18 5,0 C 3,4 C 100 % 15 lf 1016,5 hPa 0,0 l/m 0 min 2 min 0,0 UV-I 0 W/m 5,1 km/h (1 Bft)
10.01.2013 00:20 5,0 C 3,4 C 100 % 15 lf 1016,4 hPa 0,0 l/m 0 min 2 min 0,0 UV-I 0 W/m 0,0 km/h (0 Bft)
10.01.2013 00:22 4,9 C 3,4 C 100 % 15 lf 1016,4 hPa 0,0 l/m 0 min 2 min 0,0 UV-I 0 W/m 0,0 km/h (0 Bft)
10.01.2013 00:24 4,9 C 3,4 C 100 % 15 lf 1016,4 hPa 0,0 l/m 0 min 2 min 0,0 UV-I 0 W/m 0,0 km/h (0 Bft)
10.01.2013 00:26 4,9 C 3,4 C 100 % 15 lf 1016,4 hPa 0,0 l/m 0 min 2 min 0,0 UV-I 0 W/m 2,6 km/h (1 Bft)
10.01.2013 00:28 4,9 C 3,4 C 100 % 15 lf 1016,4 hPa 0,0 l/m 0 min 2 min 0,0 UV-I 0 W/m 2,6 km/h (1 Bft)
10.01.2013 00:30 4,9 C 3,4 C 100 % 15 lf 1016,4 hPa 0,0 l/m 0 min 2 min 0,0 UV-I 0 W/m 5,1 km/h (1 Bft)
10.01.2013 00:32 4,8 C 3,4 C 100 % 15 lf 1016,4 hPa 0,0 l/m 0 min 2 min 0,0 UV-I 0 W/m 0,0 km/h (0 Bft)
10.01.2013 00:34 4,8 C 3,4 C 100 % 15 lf 1016,2 hPa 0,0 l/m 0 min 2 min 0,0 UV-I 0 W/m 2,6 km/h (1 Bft)
10.01.2013 00:36 4,8 C 3,4 C 100 % 15 lf 1016,2 hPa 0,0 l/m 0 min 2 min 0,0 UV-I 0 W/m 2,6 km/h (1 Bft)
10.01.2013 00:38 4,8 C 3,4 C 100 % 15 lf 1016,3 hPa 0,0 l/m 0 min 2 min 0,0 UV-I 0 W/m 0,0 km/h (0 Bft)
10.01.2013 00:40 4,8 C 3,4 C 100 % 15 lf 1016,4 hPa 0,0 l/m 0 min 2 min 0,0 UV-I 0 W/m 0,0 km/h (0 Bft)
10.01.2013 00:42 4,7 C 3,4 C 100 % 15 lf 1016,4 hPa 0,0 l/m 0 min 2 min 0,0 UV-I 0 W/m 2,6 km/h (1 Bft)
10.01.2013 00:44 4,7 C 3,4 C 100 % 15 lf 1016,3 hPa 0,0 l/m 0 min 2 min 0,0 UV-I 0 W/m 0,0 km/h (0 Bft)
10.01.2013 00:46 4,7 C 3,4 C 100 % 15 lf 1016,3 hPa 0,0 l/m 0 min 2 min 0,0 UV-I 0 W/m 0,0 km/h (0 Bft)
10.01.2013 00:48 4,7 C 3,4 C 100 % 15 lf 1016,3 hPa 0,0 l/m 0 min 2 min 0,0 UV-I 0 W/m 5,1 km/h (1 Bft)
10.01.2013 00:50 4,6 C 3,4 C 100 % 15 lf 1016,4 hPa 0,0 l/m 0 min 2 min 0,0 UV-I 0 W/m 0,0 km/h (0 Bft)
10.01.2013 00:52 4,6 C 3,4 C 100 % 15 lf 1016,5 hPa 0,0 l/m 0 min 2 min 0,0 UV-I 0 W/m 0,0 km/h (0 Bft)
10.01.2013 00:54 4,6 C 3,4 C 100 % 15 lf 1016,4 hPa 0,0 l/m 0 min 2 min 0,0 UV-I 0 W/m 0,0 km/h (0 Bft)
10.01.2013 00:56 4,6 C 3,4 C 100 % 15 lf 1016,4 hPa 0,0 l/m 0 min 2 min 0,0 UV-I 0 W/m 0,0 km/h (0 Bft)
10.01.2013 00:58 4,6 C 3,4 C 100 % 15 lf 1016,5 hPa 0,0 l/m 0 min 2 min 0,0 UV-I 0 W/m 2,6 km/h (1 Bft)
10.01.2013 01:00 4,6 C 3,4 C 100 % 15 lf 1016,5 hPa 0,0 l/m 0 min 2 min 0,0 UV-I 0 W/m 5,1 km/h (1 Bft)
10.01.2013 01:02 4,5 C 3,4 C 100 % 15 lf 1016,5 hPa 0,0 l/m 0 min 2 min 0,0 UV-I 0 W/m 0,0 km/h (0 Bft)
10.01.2013 01:04 4,5 C 3,4 C 100 % 15 lf 1016,5 hPa 0,0 l/m 0 min 2 min 0,0 UV-I 0 W/m 0,0 km/h (0 Bft)
10.01.2013 01:06 4,5 C 3,4 C 100 % 15 lf 1016,5 hPa 0,0 l/m 0 min 2 min 0,0 UV-I 0 W/m 0,0 km/h (0 Bft)
10.01.2013 01:08 4,4 C 3,4 C 100 % 15 lf 1016,4 hPa 0,0 l/m 0 min 2 min 0,0 UV-I 0 W/m 0,0 km/h (0 Bft)
10.01.2013 01:10 4,4 C 3,4 C 100 % 15 lf 1016,5 hPa 0,0 l/m 0 min 2 min 0,0 UV-I 0 W/m 0,0 km/h (0 Bft)
10.01.2013 01:12 4,4 C 3,4 C 100 % 15 lf 1016,6 hPa 0,0 l/m 0 min 2 min 0,0 UV-I 0 W/m 2,6 km/h (1 Bft)
10.01.2013 01:14 4,4 C 3,4 C 100 % 15 lf 1016,6 hPa 0,0 l/m 0 min 2 min 0,0 UV-I 0 W/m 0,0 km/h (0 Bft)
10.01.2013 01:16 4,4 C 3,4 C 100 % 15 lf 1016,6 hPa 0,0 l/m 0 min 2 min 0,0 UV-I 0 W/m 0,0 km/h (0 Bft)
10.01.2013 01:18 4,3 C 3,4 C 100 % 15 lf 1016,6 hPa 0,0 l/m 0 min 2 min 0,0 UV-I 0 W/m 7,7 km/h (2 Bft)
10.01.2013 01:20 4,3 C 3,4 C 100 % 15 lf 1016,6 hPa 0,0 l/m 0 min 2 min 0,0 UV-I 0 W/m 2,6 km/h (1 Bft)
10.01.2013 01:22 4,3 C 3,4 C 100 % 15 lf 1016,6 hPa 0,0 l/m 0 min 2 min 0,0 UV-I 0 W/m 10,3 km/h (2 Bft)
10.01.2013 01:24 4,3 C 3,4 C 100 % 15 lf 1016,5 hPa 0,0 l/m 0 min 2 min 0,0 UV-I 0 W/m 7,7 km/h (2 Bft)
10.01.2013 01:26 4,3 C 3,4 C 100 % 15 lf 1016,5 hPa 0,0 l/m 0 min 2 min 0,0 UV-I 0 W/m 0,0 km/h (0 Bft)
10.01.2013 01:28 4,3 C 3,4 C 100 % 15 lf 1016,4 hPa 0,0 l/m 0 min 2 min 0,0 UV-I 0 W/m 2,6 km/h (1 Bft)
10.01.2013 01:30 4,3 C 3,4 C 100 % 15 lf 1016,4 hPa 0,0 l/m 0 min 2 min 0,0 UV-I 0 W/m 5,1 km/h (1 Bft)
10.01.2013 01:32 4,3 C 2,9 C 100 % 15 lf 1016,5 hPa 0,0 l/m 0 min 2 min 0,0 UV-I 0 W/m 0,0 km/h (0 Bft)
10.01.2013 01:34 4,2 C 2,9 C 100 % 15 lf 1016,5 hPa 0,0 l/m 0 min 2 min 0,0 UV-I 0 W/m 0,0 km/h (0 Bft)
10.01.2013 01:36 4,2 C 2,9 C 100 % 15 lf 1016,4 hPa 0,0 l/m 0 min 2 min 0,0 UV-I 0 W/m 5,1 km/h (1 Bft)
10.01.2013 01:38 4,2 C 3,4 C 100 % 15 lf 1016,3 hPa 0,0 l/m 0 min 2 min 0,0 UV-I 0 W/m 2,6 km/h (1 Bft)
10.01.2013 01:40 4,2 C 2,9 C 100 % 14 lf 1016,3 hPa 0,0 l/m 0 min 2 min 0,0 UV-I 0 W/m 5,1 km/h (1 Bft)
10.01.2013 01:42 4,2 C 2,9 C 100 % 14 lf 1016,3 hPa 0,0 l/m 0 min 2 min 0,0 UV-I 0 W/m 7,7 km/h (2 Bft)
10.01.2013 01:44 4,2 C 2,9 C 100 % 14 lf 1016,1 hPa 0,0 l/m 0 min 2 min 0,0 UV-I 0 W/m 0,0 km/h (0 Bft)
10.01.2013 01:46 4,2 C 2,9 C 100 % 14 lf 1016,2 hPa 0,0 l/m 0 min 2 min 0,0 UV-I 0 W/m 5,1 km/h (1 Bft)
10.01.2013 01:48 4,2 C 2,9 C 100 % 14 lf 1016,2 hPa 0,0 l/m 0 min 2 min 0,0 UV-I 0 W/m 2,6 km/h (1 Bft)
10.01.2013 01:50 4,2 C 2,9 C 100 % 14 lf 1016,3 hPa 0,0 l/m 0 min 2 min 0,0 UV-I 0 W/m 5,1 km/h (1 Bft)
10.01.2013 01:52 4,2 C 2,9 C 100 % 14 lf 1016,3 hPa 0,0 l/m 0 min 2 min 0,0 UV-I 0 W/m 0,0 km/h (0 Bft)
10.01.2013 01:54 4,2 C 2,9 C 100 % 14 lf 1016,2 hPa 0,0 l/m 0 min 2 min 0,0 UV-I 0 W/m 0,0 km/h (0 Bft)
10.01.2013 01:56 4,2 C 2,9 C 100 % 14 lf 1016,2 hPa 0,0 l/m 0 min 2 min 0,0 UV-I 0 W/m 0,0 km/h (0 Bft)
10.01.2013 01:58 4,2 C 2,9 C 100 % 14 lf 1016,2 hPa 0,0 l/m 0 min 2 min 0,0 UV-I 0 W/m 0,0 km/h (0 Bft)
10.01.2013 02:00 4,2 C 2,9 C 100 % 14 lf 1016,2 hPa 0,0 l/m 0 min 2 min 0,0 UV-I 0 W/m 0,0 km/h (0 Bft)
10.01.2013 02:02 4,2 C 2,9 C 100 % 14 lf 1016,1 hPa 0,0 l/m 0 min 2 min 0,0 UV-I 0 W/m 10,3 km/h (2 Bft)
10.01.2013 02:04 4,2 C 2,9 C 100 % 13 lf 1016,3 hPa 0,0 l/m 0 min 2 min 0,0 UV-I 0 W/m 0,0 km/h (0 Bft)
10.01.2013 02:06 4,2 C 2,9 C 100 % 13 lf 1016,3 hPa 0,0 l/m 0 min 2 min 0,0 UV-I 0 W/m 5,1 km/h (1 Bft)
10.01.2013 02:08 4,2 C 2,9 C 100 % 13 lf 1016,2 hPa 0,0 l/m 0 min 2 min 0,0 UV-I 0 W/m 0,0 km/h (0 Bft)
10.01.2013 02:10 4,2 C 2,9 C 100 % 13 lf 1016,2 hPa 0,0 l/m 0 min 2 min 0,0 UV-I 0 W/m 0,0 km/h (0 Bft)
10.01.2013 02:12 4,2 C 2,9 C 100 % 13 lf 1016,2 hPa 0,0 l/m 0 min 2 min 0,0 UV-I 0 W/m 0,0 km/h (0 Bft)
10.01.2013 02:14 4,2 C 2,9 C 100 % 12 lf 1016,2 hPa 0,0 l/m 0 min 2 min 0,0 UV-I 0 W/m 0,0 km/h (0 Bft)
10.01.2013 02:16 4,2 C 2,9 C 100 % 12 lf 1016,0 hPa 0,0 l/m 0 min 2 min 0,0 UV-I 0 W/m 2,6 km/h (1 Bft)
10.01.2013 02:18 4,2 C 2,9 C 100 % 11 lf 1016,0 hPa 0,0 l/m 0 min 2 min 0,0 UV-I 0 W/m 0,0 km/h (0 Bft)
10.01.2013 02:20 4,2 C 2,9 C 100 % 11 lf 1016,1 hPa 0,0 l/m 0 min 2 min 0,0 UV-I 0 W/m 0,0 km/h (0 Bft)
10.01.2013 02:22 4,2 C 2,9 C 100 % 10 lf 1016,0 hPa 0,0 l/m 0 min 0 min 0,0 UV-I 0 W/m 0,0 km/h (0 Bft)
10.01.2013 02:24 4,2 C 2,9 C 100 % 10 lf 1015,9 hPa 0,0 l/m 0 min 0 min 0,0 UV-I 0 W/m 0,0 km/h (0 Bft)
10.01.2013 02:26 4,2 C 2,9 C 100 % 10 lf 1015,9 hPa 0,0 l/m 0 min 0 min 0,0 UV-I 0 W/m 0,0 km/h (0 Bft)
10.01.2013 02:28 4,2 C 2,9 C 100 % 10 lf 1015,9 hPa 0,0 l/m 0 min 0 min 0,0 UV-I 0 W/m 0,0 km/h (0 Bft)
10.01.2013 02:30 4,2 C 2,9 C 100 % 9 lf 1015,8 hPa 0,0 l/m 0 min 0 min 0,0 UV-I 0 W/m 0,0 km/h (0 Bft)
10.01.2013 02:32 4,2 C 2,9 C 100 % 9 lf 1015,8 hPa 0,0 l/m 0 min 0 min 0,0 UV-I 0 W/m 5,1 km/h (1 Bft)
10.01.2013 02:34 4,2 C 2,9 C 100 % 9 lf 1015,7 hPa 0,0 l/m 0 min 0 min 0,0 UV-I 0 W/m 2,6 km/h (1 Bft)
10.01.2013 02:36 4,1 C 2,9 C 100 % 9 lf 1015,6 hPa 0,0 l/m 0 min 0 min 0,0 UV-I 0 W/m 0,0 km/h (0 Bft)
10.01.2013 02:38 4,1 C 2,9 C 100 % 9 lf 1015,6 hPa 0,0 l/m 0 min 0 min 0,0 UV-I 0 W/m 0,0 km/h (0 Bft)
10.01.2013 02:40 4,1 C 2,9 C 100 % 9 lf 1015,7 hPa 0,0 l/m 0 min 0 min 0,0 UV-I 0 W/m 0,0 km/h (0 Bft)
10.01.2013 02:42 4,1 C 2,9 C 100 % 9 lf 1015,8 hPa 0,0 l/m 0 min 0 min 0,0 UV-I 0 W/m 0,0 km/h (0 Bft)
10.01.2013 02:44 4,1 C 2,9 C 100 % 9 lf 1015,8 hPa 0,0 l/m 0 min 0 min 0,0 UV-I 0 W/m 2,6 km/h (1 Bft)
10.01.2013 02:46 4,1 C 2,9 C 100 % 9 lf 1015,8 hPa 0,0 l/m 0 min 0 min 0,0 UV-I 0 W/m 5,1 km/h (1 Bft)
10.01.2013 02:48 4,1 C 2,9 C 100 % 8 lf 1015,8 hPa 0,0 l/m 0 min 0 min 0,0 UV-I 0 W/m 2,6 km/h (1 Bft)
10.01.2013 02:50 4,1 C 2,9 C 100 % 8 lf 1015,7 hPa 0,0 l/m 0 min 0 min 0,0 UV-I 0 W/m 0,0 km/h (0 Bft)
10.01.2013 02:52 4,1 C 2,9 C 100 % 8 lf 1015,7 hPa 0,0 l/m 0 min 0 min 0,0 UV-I 0 W/m 2,6 km/h (1 Bft)
10.01.2013 02:54 4,1 C 2,9 C 100 % 8 lf 1015,8 hPa 0,0 l/m 0 min 0 min 0,0 UV-I 0 W/m 0,0 km/h (0 Bft)
10.01.2013 02:56 4,1 C 2,9 C 100 % 8 lf 1015,7 hPa 0,0 l/m 0 min 0 min 0,0 UV-I 0 W/m 5,1 km/h (1 Bft)
10.01.2013 02:58 4,1 C 2,9 C 100 % 8 lf 1015,8 hPa 0,0 l/m 0 min 0 min 0,0 UV-I 0 W/m 5,1 km/h (1 Bft)
10.01.2013 03:00 4,1 C 2,9 C 100 % 7 lf 1015,7 hPa 0,0 l/m 0 min 0 min 0,0 UV-I 0 W/m 2,6 km/h (1 Bft)
10.01.2013 03:02 4,2 C 2,9 C 100 % 7 lf 1015,7 hPa 0,0 l/m 0 min 0 min 0,0 UV-I 0 W/m 5,1 km/h (1 Bft)
10.01.2013 03:04 4,1 C 2,9 C 100 % 7 lf 1015,7 hPa 0,0 l/m 0 min 0 min 0,0 UV-I 0 W/m 2,6 km/h (1 Bft)
10.01.2013 03:07 4,2 C 2,9 C 100 % 7 lf 1015,7 hPa 0,0 l/m 0 min 0 min 0,0 UV-I 0 W/m 5,1 km/h (1 Bft)
10.01.2013 03:08 4,2 C 2,9 C 100 % 7 lf 1015,6 hPa 0,0 l/m 0 min 0 min 0,0 UV-I 0 W/m 5,1 km/h (1 Bft)
10.01.2013 03:10 4,2 C 2,9 C 100 % 7 lf 1015,7 hPa 0,0 l/m 0 min 0 min 0,0 UV-I 0 W/m 0,0 km/h (0 Bft)
10.01.2013 03:12 4,2 C 2,9 C 100 % 7 lf 1015,7 hPa 0,0 l/m 0 min 0 min 0,0 UV-I 0 W/m 0,0 km/h (0 Bft)
10.01.2013 03:14 4,2 C 2,9 C 100 % 7 lf 1015,7 hPa 0,0 l/m 0 min 0 min 0,0 UV-I 0 W/m 5,1 km/h (1 Bft)
10.01.2013 03:16 4,2 C 2,9 C 100 % 7 lf 1015,6 hPa 0,0 l/m 0 min 0 min 0,0 UV-I 0 W/m 7,7 km/h (2 Bft)
10.01.2013 03:18 4,2 C 2,9 C 100 % 7 lf 1015,6 hPa 0,0 l/m 0 min 0 min 0,0 UV-I 0 W/m 2,6 km/h (1 Bft)
10.01.2013 03:20 4,2 C 2,9 C 100 % 7 lf 1015,6 hPa 0,0 l/m 0 min 0 min 0,0 UV-I 0 W/m 2,6 km/h (1 Bft)
10.01.2013 03:22 4,2 C 2,9 C 99 % 7 lf 1015,6 hPa 0,0 l/m 0 min 0 min 0,0 UV-I 0 W/m 2,6 km/h (1 Bft)
10.01.2013 03:24 4,2 C 2,9 C 99 % 6 lf 1015,5 hPa 0,0 l/m 0 min 0 min 0,0 UV-I 0 W/m 7,7 km/h (2 Bft)
10.01.2013 03:26 4,2 C 2,9 C 99 % 6 lf 1015,4 hPa 0,0 l/m 0 min 0 min 0,0 UV-I 0 W/m 2,6 km/h (1 Bft)
10.01.2013 03:28 4,2 C 2,9 C 99 % 6 lf 1015,5 hPa 0,0 l/m 0 min 0 min 0,0 UV-I 0 W/m 2,6 km/h (1 Bft)
10.01.2013 03:30 4,2 C 2,9 C 99 % 5 lf 1015,5 hPa 0,0 l/m 0 min 0 min 0,0 UV-I 0 W/m 10,3 km/h (2 Bft)
10.01.2013 03:32 4,2 C 2,9 C 99 % 5 lf 1015,4 hPa 0,0 l/m 0 min 0 min 0,0 UV-I 0 W/m 2,6 km/h (1 Bft)
10.01.2013 03:34 4,2 C 2,9 C 99 % 5 lf 1015,5 hPa 0,0 l/m 0 min 0 min 0,0 UV-I 0 W/m 5,1 km/h (1 Bft)
10.01.2013 03:36 4,2 C 2,9 C 99 % 5 lf 1015,5 hPa 0,0 l/m 0 min 0 min 0,0 UV-I 0 W/m 2,6 km/h (1 Bft)
10.01.2013 03:38 4,2 C 2,9 C 99 % 5 lf 1015,5 hPa 0,0 l/m 0 min 0 min 0,0 UV-I 0 W/m 0,0 km/h (0 Bft)
10.01.2013 03:40 4,2 C 2,9 C 99 % 5 lf 1015,5 hPa 0,0 l/m 0 min 0 min 0,0 UV-I 0 W/m 2,6 km/h (1 Bft)
10.01.2013 03:42 4,2 C 2,9 C 99 % 5 lf 1015,5 hPa 0,0 l/m 0 min 0 min 0,0 UV-I 0 W/m 2,6 km/h (1 Bft)
10.01.2013 03:44 4,2 C 2,9 C 99 % 5 lf 1015,4 hPa 0,0 l/m 0 min 0 min 0,0 UV-I 0 W/m 2,6 km/h (1 Bft)
10.01.2013 03:46 4,2 C 2,9 C 99 % 5 lf 1015,4 hPa 0,0 l/m 0 min 0 min 0,0 UV-I 0 W/m 2,6 km/h (1 Bft)
10.01.2013 03:48 4,2 C 2,9 C 99 % 4 lf 1015,3 hPa 0,0 l/m 0 min 0 min 0,0 UV-I 0 W/m 5,1 km/h (1 Bft)
10.01.2013 03:50 4,2 C 2,9 C 99 % 4 lf 1015,2 hPa 0,0 l/m 0 min 0 min 0,0 UV-I 0 W/m 2,6 km/h (1 Bft)
10.01.2013 03:52 4,2 C 2,9 C 99 % 4 lf 1015,2 hPa 0,0 l/m 0 min 0 min 0,0 UV-I 0 W/m 2,6 km/h (1 Bft)
10.01.2013 03:54 4,2 C 2,9 C 99 % 4 lf 1015,2 hPa 0,0 l/m 0 min 0 min 0,0 UV-I 0 W/m 2,6 km/h (1 Bft)
10.01.2013 03:56 4,2 C 2,9 C 99 % 4 lf 1014,9 hPa 0,0 l/m 0 min 0 min 0,0 UV-I 0 W/m 7,7 km/h (2 Bft)
10.01.2013 03:58 4,2 C 2,9 C 99 % 4 lf 1015,0 hPa 0,0 l/m 0 min 0 min 0,0 UV-I 0 W/m 2,6 km/h (1 Bft)
10.01.2013 04:00 4,2 C 2,9 C 99 % 4 lf 1015,1 hPa 0,0 l/m 0 min 0 min 0,0 UV-I 0 W/m 2,6 km/h (1 Bft)
10.01.2013 04:02 4,2 C 2,9 C 99 % 4 lf 1015,1 hPa 0,0 l/m 0 min 0 min 0,0 UV-I 0 W/m 5,1 km/h (1 Bft)
10.01.2013 04:04 4,2 C 2,9 C 99 % 4 lf 1015,0 hPa 0,0 l/m 0 min 0 min 0,0 UV-I 0 W/m 2,6 km/h (1 Bft)
10.01.2013 04:06 4,2 C 2,9 C 99 % 4 lf 1015,1 hPa 0,0 l/m 0 min 0 min 0,0 UV-I 0 W/m 2,6 km/h (1 Bft)
10.01.2013 04:08 4,3 C 2,9 C 99 % 4 lf 1015,1 hPa 0,0 l/m 0 min 0 min 0,0 UV-I 0 W/m 2,6 km/h (1 Bft)
10.01.2013 04:10 4,3 C 2,9 C 99 % 4 lf 1015,2 hPa 0,0 l/m 0 min 0 min 0,0 UV-I 0 W/m 2,6 km/h (1 Bft)
10.01.2013 04:12 4,3 C 2,9 C 99 % 4 lf 1015,2 hPa 0,0 l/m 0 min 0 min 0,0 UV-I 0 W/m 5,1 km/h (1 Bft)
10.01.2013 04:14 4,3 C 2,9 C 99 % 4 lf 1015,2 hPa 0,0 l/m 0 min 0 min 0,0 UV-I 0 W/m 2,6 km/h (1 Bft)
10.01.2013 04:16 4,3 C 2,9 C 99 % 4 lf 1015,2 hPa 0,0 l/m 0 min 0 min 0,0 UV-I 0 W/m 0,0 km/h (0 Bft)
10.01.2013 04:18 4,3 C 2,9 C 99 % 4 lf 1015,1 hPa 0,0 l/m 0 min 0 min 0,0 UV-I 0 W/m 2,6 km/h (1 Bft)
10.01.2013 04:20 4,3 C 2,9 C 99 % 4 lf 1015,1 hPa 0,0 l/m 0 min 0 min 0,0 UV-I 0 W/m 2,6 km/h (1 Bft)
10.01.2013 04:22 4,3 C 2,9 C 99 % 4 lf 1014,9 hPa 0,0 l/m 0 min 0 min 0,0 UV-I 0 W/m 0,0 km/h (0 Bft)
10.01.2013 04:24 4,3 C 2,9 C 99 % 4 lf 1014,9 hPa 0,0 l/m 0 min 0 min 0,0 UV-I 0 W/m 0,0 km/h (0 Bft)
10.01.2013 04:26 4,3 C 3,4 C 99 % 4 lf 1014,9 hPa 0,0 l/m 0 min 0 min 0,0 UV-I 0 W/m 2,6 km/h (1 Bft)
10.01.2013 04:28 4,3 C 3,4 C 99 % 5 lf 1014,9 hPa 0,0 l/m 0 min 0 min 0,0 UV-I 0 W/m 2,6 km/h (1 Bft)
10.01.2013 04:30 4,3 C 3,4 C 99 % 5 lf 1014,8 hPa 0,0 l/m 0 min 0 min 0,0 UV-I 0 W/m 0,0 km/h (0 Bft)
10.01.2013 04:32 4,3 C 3,4 C 99 % 5 lf 1015,0 hPa 0,0 l/m 0 min 0 min 0,0 UV-I 0 W/m 0,0 km/h (0 Bft)
10.01.2013 04:34 4,3 C 3,4 C 99 % 5 lf 1015,0 hPa 0,0 l/m 0 min 0 min 0,0 UV-I 0 W/m 0,0 km/h (0 Bft)
10.01.2013 04:36 4,3 C 3,4 C 99 % 4 lf 1015,0 hPa 0,0 l/m 0 min 0 min 0,0 UV-I 0 W/m 2,6 km/h (1 Bft)
10.01.2013 04:38 4,3 C 3,4 C 99 % 4 lf 1015,0 hPa 0,0 l/m 0 min 0 min 0,0 UV-I 0 W/m 5,1 km/h (1 Bft)
10.01.2013 04:40 4,3 C 3,4 C 98 % 4 lf 1014,8 hPa 0,0 l/m 0 min 0 min 0,0 UV-I 0 W/m 5,1 km/h (1 Bft)
10.01.2013 04:42 4,3 C 3,4 C 98 % 4 lf 1014,8 hPa 0,0 l/m 0 min 0 min 0,0 UV-I 0 W/m 0,0 km/h (0 Bft)
10.01.2013 04:44 4,3 C 3,4 C 98 % 5 lf 1014,8 hPa 0,0 l/m 0 min 0 min 0,0 UV-I 0 W/m 2,6 km/h (1 Bft)
10.01.2013 04:46 4,4 C 3,4 C 98 % 4 lf 1014,8 hPa 0,0 l/m 0 min 0 min 0,0 UV-I 0 W/m 5,1 km/h (1 Bft)
10.01.2013 04:48 4,4 C 3,4 C 98 % 4 lf 1014,9 hPa 0,0 l/m 0 min 0 min 0,0 UV-I 0 W/m 0,0 km/h (0 Bft)
10.01.2013 04:50 4,4 C 3,4 C 98 % 4 lf 1015,0 hPa 0,0 l/m 0 min 0 min 0,0 UV-I 0 W/m 5,1 km/h (1 Bft)
10.01.2013 04:52 4,4 C 3,4 C 98 % 4 lf 1014,8 hPa 0,0 l/m 0 min 0 min 0,0 UV-I 0 W/m 0,0 km/h (0 Bft)
10.01.2013 04:54 4,4 C 3,4 C 98 % 4 lf 1014,8 hPa 0,0 l/m 0 min 0 min 0,0 UV-I 0 W/m 2,6 km/h (1 Bft)
10.01.2013 04:56 4,4 C 3,4 C 98 % 4 lf 1014,7 hPa 0,0 l/m 0 min 0 min 0,0 UV-I 0 W/m 7,7 km/h (2 Bft)
10.01.2013 04:58 4,4 C 3,4 C 98 % 4 lf 1014,7 hPa 0,0 l/m 0 min 0 min 0,0 UV-I 0 W/m 0,0 km/h (0 Bft)
10.01.2013 05:00 4,4 C 3,4 C 98 % 4 lf 1014,5 hPa 0,0 l/m 0 min 0 min 0,0 UV-I 0 W/m 2,6 km/h (1 Bft)
10.01.2013 05:02 4,4 C 3,4 C 98 % 3 lf 1014,5 hPa 0,0 l/m 0 min 0 min 0,0 UV-I 0 W/m 0,0 km/h (0 Bft)
10.01.2013 05:04 4,4 C 3,4 C 98 % 3 lf 1014,5 hPa 0,0 l/m 0 min 0 min 0,0 UV-I 0 W/m 7,7 km/h (2 Bft)
10.01.2013 05:06 4,4 C 3,4 C 98 % 3 lf 1014,6 hPa 0,0 l/m 0 min 0 min 0,0 UV-I 0 W/m 5,1 km/h (1 Bft)
10.01.2013 05:08 4,4 C 3,4 C 98 % 3 lf 1014,6 hPa 0,0 l/m 0 min 0 min 0,0 UV-I 0 W/m 2,6 km/h (1 Bft)
10.01.2013 05:10 4,4 C 3,4 C 98 % 3 lf 1014,7 hPa 0,0 l/m 0 min 0 min 0,0 UV-I 0 W/m 0,0 km/h (0 Bft)
10.01.2013 05:12 4,4 C 3,4 C 99 % 3 lf 1014,7 hPa 0,0 l/m 0 min 0 min 0,0 UV-I 0 W/m 0,0 km/h (0 Bft)
10.01.2013 05:14 4,4 C 3,4 C 98 % 2 lf 1014,6 hPa 0,0 l/m 0 min 0 min 0,0 UV-I 0 W/m 2,6 km/h (1 Bft)
10.01.2013 05:16 4,4 C 3,4 C 98 % 2 lf 1014,6 hPa 0,0 l/m 0 min 0 min 0,0 UV-I 0 W/m 0,0 km/h (0 Bft)
10.01.2013 05:18 4,4 C 3,4 C 99 % 2 lf 1014,5 hPa 0,0 l/m 0 min 0 min 0,0 UV-I 0 W/m 5,1 km/h (1 Bft)
10.01.2013 05:20 4,4 C 3,4 C 98 % 2 lf 1014,5 hPa 0,0 l/m 0 min 0 min 0,0 UV-I 0 W/m 0,0 km/h (0 Bft)
10.01.2013 05:22 4,4 C 3,4 C 98 % 2 lf 1014,5 hPa 0,0 l/m 0 min 0 min 0,0 UV-I 0 W/m 2,6 km/h (1 Bft)
10.01.2013 05:24 4,4 C 3,4 C 98 % 1 lf 1014,4 hPa 0,0 l/m 0 min 0 min 0,0 UV-I 0 W/m 0,0 km/h (0 Bft)
10.01.2013 05:26 4,4 C 3,4 C 98 % 1 lf 1014,3 hPa 0,0 l/m 0 min 0 min 0,0 UV-I 0 W/m 0,0 km/h (0 Bft)
10.01.2013 05:28 4,4 C 3,4 C 98 % 1 lf 1014,3 hPa 0,0 l/m 0 min 0 min 0,0 UV-I 0 W/m 0,0 km/h (0 Bft)
10.01.2013 05:30 4,4 C 3,4 C 99 % 1 lf 1014,3 hPa 0,0 l/m 0 min 0 min 0,0 UV-I 0 W/m 0,0 km/h (0 Bft)
10.01.2013 05:32 4,4 C 3,4 C 98 % 1 lf 1014,3 hPa 0,0 l/m 0 min 0 min 0,0 UV-I 0 W/m 2,6 km/h (1 Bft)
10.01.2013 05:34 4,4 C 3,4 C 98 % 1 lf 1014,2 hPa 0,0 l/m 0 min 0 min 0,0 UV-I 0 W/m 0,0 km/h (0 Bft)
10.01.2013 05:36 4,4 C 3,4 C 98 % 1 lf 1014,2 hPa 0,0 l/m 0 min 0 min 0,0 UV-I 0 W/m 2,6 km/h (1 Bft)
10.01.2013 05:38 4,4 C 3,4 C 98 % 1 lf 1014,2 hPa 0,0 l/m 0 min 0 min 0,0 UV-I 0 W/m 2,6 km/h (1 Bft)
10.01.2013 05:40 4,4 C 3,4 C 98 % 1 lf 1014,3 hPa 0,0 l/m 0 min 0 min 0,0 UV-I 0 W/m 0,0 km/h (0 Bft)
10.01.2013 05:42 4,4 C 3,4 C 98 % 1 lf 1014,3 hPa 0,0 l/m 0 min 0 min 0,0 UV-I 0 W/m 0,0 km/h (0 Bft)
10.01.2013 05:44 4,4 C 3,4 C 98 % 1 lf 1014,3 hPa 0,0 l/m 0 min 0 min 0,0 UV-I 0 W/m 5,1 km/h (1 Bft)
10.01.2013 05:46 4,4 C 3,4 C 98 % 1 lf 1014,3 hPa 0,0 l/m 0 min 0 min 0,0 UV-I 0 W/m 10,3 km/h (2 Bft)
10.01.2013 05:48 4,4 C 3,4 C 98 % 0 lf 1014,4 hPa 0,0 l/m 0 min 0 min 0,0 UV-I 0 W/m 5,1 km/h (1 Bft)
10.01.2013 05:50 4,4 C 3,4 C 98 % 0 lf 1014,4 hPa 0,0 l/m 0 min 0 min 0,0 UV-I 0 W/m 5,1 km/h (1 Bft)
10.01.2013 05:52 4,4 C 3,4 C 98 % 0 lf 1014,3 hPa 0,0 l/m 0 min 0 min 0,0 UV-I 0 W/m 5,1 km/h (1 Bft)
10.01.2013 05:54 4,4 C 3,4 C 98 % 0 lf 1014,4 hPa 0,0 l/m 0 min 0 min 0,0 UV-I 0 W/m 7,7 km/h (2 Bft)
10.01.2013 05:56 4,4 C 3,4 C 98 % 0 lf 1014,4 hPa 0,0 l/m 0 min 0 min 0,0 UV-I 0 W/m 5,1 km/h (1 Bft)
10.01.2013 05:58 4,4 C 3,4 C 98 % 0 lf 1014,4 hPa 0,0 l/m 0 min 0 min 0,0 UV-I 0 W/m 5,1 km/h (1 Bft)
10.01.2013 06:00 4,4 C 3,4 C 98 % 0 lf 1014,4 hPa 0,0 l/m 0 min 0 min 0,0 UV-I 0 W/m 0,0 km/h (0 Bft)
10.01.2013 06:02 4,4 C 3,4 C 98 % 0 lf 1014,4 hPa 0,0 l/m 0 min 0 min 0,0 UV-I 0 W/m 7,7 km/h (2 Bft)
10.01.2013 06:04 4,4 C 3,4 C 98 % 0 lf 1014,5 hPa 0,0 l/m 0 min 0 min 0,0 UV-I 0 W/m 0,0 km/h (0 Bft)
10.01.2013 06:06 4,4 C 3,4 C 98 % 0 lf 1014,3 hPa 0,0 l/m 0 min 0 min 0,0 UV-I 0 W/m 2,6 km/h (1 Bft)
10.01.2013 06:08 4,4 C 3,4 C 98 % 0 lf 1014,3 hPa 0,0 l/m 0 min 0 min 0,0 UV-I 0 W/m 0,0 km/h (0 Bft)
10.01.2013 06:10 4,3 C 3,4 C 98 % 0 lf 1014,3 hPa 0,0 l/m 0 min 0 min 0,0 UV-I 0 W/m 2,6 km/h (1 Bft)
10.01.2013 06:12 4,3 C 3,4 C 98 % 0 lf 1014,4 hPa 0,0 l/m 0 min 0 min 0,0 UV-I 0 W/m 7,7 km/h (2 Bft)
10.01.2013 06:14 4,3 C 3,4 C 98 % 0 lf 1014,4 hPa 0,0 l/m 0 min 0 min 0,0 UV-I 0 W/m 7,7 km/h (2 Bft)
10.01.2013 06:16 4,3 C 3,4 C 98 % 0 lf 1014,4 hPa 0,0 l/m 0 min 0 min 0,0 UV-I 0 W/m 2,6 km/h (1 Bft)
10.01.2013 06:18 4,3 C 3,4 C 98 % 0 lf 1014,4 hPa 0,0 l/m 0 min 0 min 0,0 UV-I 0 W/m 2,6 km/h (1 Bft)
10.01.2013 06:20 4,3 C 3,4 C 98 % 0 lf 1014,4 hPa 0,0 l/m 0 min 0 min 0,0 UV-I 0 W/m 7,7 km/h (2 Bft)
10.01.2013 06:22 4,3 C 3,4 C 98 % 0 lf 1014,4 hPa 0,0 l/m 0 min 0 min 0,0 UV-I 0 W/m 7,7 km/h (2 Bft)
10.01.2013 06:24 4,3 C 3,4 C 98 % 0 lf 1014,3 hPa 0,0 l/m 0 min 0 min 0,0 UV-I 0 W/m 7,7 km/h (2 Bft)
10.01.2013 06:26 4,3 C 3,4 C 98 % 0 lf 1014,3 hPa 0,0 l/m 0 min 0 min 0,0 UV-I 0 W/m 2,6 km/h (1 Bft)
10.01.2013 06:28 4,3 C 3,4 C 98 % 0 lf 1014,3 hPa 0,0 l/m 0 min 0 min 0,0 UV-I 0 W/m 5,1 km/h (1 Bft)
10.01.2013 06:30 4,3 C 2,9 C 98 % 0 lf 1014,4 hPa 0,0 l/m 0 min 0 min 0,0 UV-I 0 W/m 0,0 km/h (0 Bft)
10.01.2013 06:32 4,3 C 3,4 C 98 % 0 lf 1014,4 hPa 0,0 l/m 0 min 0 min 0,0 UV-I 0 W/m 10,3 km/h (2 Bft)
10.01.2013 06:34 4,3 C 2,9 C 98 % 0 lf 1014,3 hPa 0,0 l/m 0 min 0 min 0,0 UV-I 0 W/m 2,6 km/h (1 Bft)
10.01.2013 06:36 4,3 C 3,4 C 98 % 0 lf 1014,3 hPa 0,0 l/m 0 min 0 min 0,0 UV-I 0 W/m 5,1 km/h (1 Bft)
10.01.2013 06:38 4,3 C 3,4 C 98 % 0 lf 1014,2 hPa 0,0 l/m 0 min 0 min 0,0 UV-I 0 W/m 7,7 km/h (2 Bft)
10.01.2013 06:40 4,3 C 3,4 C 98 % 0 lf 1014,3 hPa 0,0 l/m 0 min 0 min 0,0 UV-I 0 W/m 5,1 km/h (1 Bft)
10.01.2013 06:42 4,3 C 2,9 C 98 % 0 lf 1014,2 hPa 0,0 l/m 0 min 0 min 0,0 UV-I 0 W/m 7,7 km/h (2 Bft)
10.01.2013 06:44 4,3 C 3,4 C 98 % 0 lf 1014,3 hPa 0,0 l/m 0 min 0 min 0,0 UV-I 0 W/m 0,0 km/h (0 Bft)
10.01.2013 06:46 4,3 C 2,9 C 98 % 0 lf 1014,3 hPa 0,0 l/m 0 min 0 min 0,0 UV-I 0 W/m 0,0 km/h (0 Bft)
10.01.2013 06:48 4,3 C 2,9 C 98 % 0 lf 1014,2 hPa 0,0 l/m 0 min 0 min 0,0 UV-I 0 W/m 7,7 km/h (2 Bft)
10.01.2013 06:50 4,3 C 3,4 C 98 % 0 lf 1014,2 hPa 0,0 l/m 0 min 0 min 0,0 UV-I 0 W/m 7,7 km/h (2 Bft)
10.01.2013 06:52 4,3 C 2,9 C 98 % 0 lf 1014,1 hPa 0,0 l/m 0 min 0 min 0,0 UV-I 0 W/m 7,7 km/h (2 Bft)
10.01.2013 06:54 4,3 C 2,9 C 98 % 0 lf 1014,1 hPa 0,0 l/m 0 min 0 min 0,0 UV-I 0 W/m 0,0 km/h (0 Bft)
10.01.2013 06:56 4,3 C 3,4 C 98 % 0 lf 1014,1 hPa 0,0 l/m 0 min 0 min 0,0 UV-I 0 W/m 0,0 km/h (0 Bft)
10.01.2013 06:58 4,3 C 3,4 C 98 % 0 lf 1014,1 hPa 0,0 l/m 0 min 0 min 0,0 UV-I 0 W/m 5,1 km/h (1 Bft)
10.01.2013 07:00 4,3 C 2,9 C 98 % 0 lf 1014,1 hPa 0,0 l/m 0 min 0 min 0,0 UV-I 0 W/m 0,0 km/h (0 Bft)
10.01.2013 07:02 4,3 C 2,9 C 98 % 0 lf 1014,1 hPa 0,0 l/m 0 min 0 min 0,0 UV-I 0 W/m 0,0 km/h (0 Bft)
10.01.2013 07:04 4,3 C 2,9 C 98 % 0 lf 1014,1 hPa 0,0 l/m 0 min 0 min 0,0 UV-I 0 W/m 5,1 km/h (1 Bft)
10.01.2013 07:06 4,3 C 3,4 C 98 % 0 lf 1014,2 hPa 0,0 l/m 0 min 0 min 0,0 UV-I 0 W/m 0,0 km/h (0 Bft)
10.01.2013 07:08 4,3 C 2,9 C 98 % 0 lf 1014,0 hPa 0,0 l/m 0 min 0 min 0,0 UV-I 0 W/m 10,3 km/h (2 Bft)
10.01.2013 07:10 4,3 C 2,9 C 98 % 0 lf 1014,0 hPa 0,0 l/m 0 min 0 min 0,0 UV-I 0 W/m 7,7 km/h (2 Bft)
10.01.2013 07:12 4,3 C 2,9 C 98 % 0 lf 1014,1 hPa 0,0 l/m 0 min 0 min 0,0 UV-I 0 W/m 2,6 km/h (1 Bft)
10.01.2013 07:14 4,3 C 3,4 C 98 % 0 lf 1014,0 hPa 0,0 l/m 0 min 0 min 0,0 UV-I 0 W/m 0,0 km/h (0 Bft)
10.01.2013 07:16 4,3 C 3,4 C 98 % 0 lf 1014,0 hPa 0,0 l/m 0 min 0 min 0,0 UV-I 0 W/m 0,0 km/h (0 Bft)
10.01.2013 07:18 4,3 C 3,4 C 98 % 0 lf 1013,9 hPa 0,0 l/m 0 min 0 min 0,0 UV-I 0 W/m 0,0 km/h (0 Bft)
10.01.2013 07:20 4,3 C 3,4 C 98 % 0 lf 1014,0 hPa 0,0 l/m 0 min 0 min 0,0 UV-I 0 W/m 2,6 km/h (1 Bft)
10.01.2013 07:22 4,3 C 3,4 C 98 % 0 lf 1014,1 hPa 0,0 l/m 0 min 0 min 0,0 UV-I 0 W/m 7,7 km/h (2 Bft)
10.01.2013 07:24 4,3 C 3,4 C 98 % 0 lf 1014,2 hPa 0,0 l/m 0 min 0 min 0,0 UV-I 0 W/m 0,0 km/h (0 Bft)
10.01.2013 07:26 4,3 C 3,4 C 98 % 0 lf 1014,0 hPa 0,0 l/m 0 min 0 min 0,0 UV-I 0 W/m 7,7 km/h (2 Bft)
10.01.2013 07:28 4,3 C 3,4 C 98 % 0 lf 1014,0 hPa 0,0 l/m 0 min 0 min 0,0 UV-I 0 W/m 7,7 km/h (2 Bft)
10.01.2013 07:30 4,3 C 3,4 C 98 % 0 lf 1014,1 hPa 0,0 l/m 0 min 0 min 0,0 UV-I 0 W/m 0,0 km/h (0 Bft)
10.01.2013 07:32 4,3 C 3,4 C 98 % 0 lf 1014,0 hPa 0,0 l/m 0 min 0 min 0,0 UV-I 0 W/m 2,6 km/h (1 Bft)
10.01.2013 07:34 4,3 C 3,4 C 98 % 0 lf 1014,0 hPa 0,0 l/m 0 min 0 min 0,0 UV-I 0 W/m 0,0 km/h (0 Bft)
10.01.2013 07:36 4,3 C 3,4 C 98 % 0 lf 1014,1 hPa 0,0 l/m 0 min 0 min 0,0 UV-I 0 W/m 0,0 km/h (0 Bft)
10.01.2013 07:38 4,3 C 3,4 C 98 % 0 lf 1014,0 hPa 0,0 l/m 0 min 0 min 0,0 UV-I 0 W/m 7,7 km/h (2 Bft)
10.01.2013 07:40 4,3 C 3,4 C 98 % 1 lf 1014,3 hPa 0,0 l/m 0 min 0 min 0,0 UV-I 0 W/m 0,0 km/h (0 Bft)
10.01.2013 07:42 4,3 C 3,4 C 98 % 2 lf 1014,2 hPa 0,0 l/m 0 min 0 min 0,0 UV-I 0 W/m 2,6 km/h (1 Bft)
10.01.2013 07:44 4,3 C 3,4 C 98 % 1 lf 1014,1 hPa 0,0 l/m 0 min 0 min 0,0 UV-I 0 W/m 0,0 km/h (0 Bft)
10.01.2013 07:46 4,3 C 3,4 C 98 % 0 lf 1014,1 hPa 0,0 l/m 0 min 0 min 0,0 UV-I 0 W/m 0,0 km/h (0 Bft)
10.01.2013 07:48 4,3 C 3,4 C 98 % 0 lf 1014,1 hPa 0,0 l/m 0 min 0 min 0,0 UV-I 0 W/m 10,3 km/h (2 Bft)
10.01.2013 07:50 4,3 C 3,4 C 98 % 0 lf 1014,1 hPa 0,0 l/m 0 min 0 min 0,0 UV-I 0 W/m 5,1 km/h (1 Bft)
10.01.2013 07:52 4,3 C 3,4 C 98 % 0 lf 1014,1 hPa 0,0 l/m 0 min 0 min 0,0 UV-I 0 W/m 0,0 km/h (0 Bft)
10.01.2013 07:54 4,3 C 3,4 C 98 % 0 lf 1014,2 hPa 0,0 l/m 0 min 0 min 0,0 UV-I 0 W/m 2,6 km/h (1 Bft)
10.01.2013 07:56 4,3 C 3,4 C 98 % 0 lf 1014,2 hPa 0,0 l/m 0 min 0 min 0,0 UV-I 0 W/m 5,1 km/h (1 Bft)
10.01.2013 07:58 4,3 C 3,4 C 98 % 0 lf 1014,3 hPa 0,0 l/m 0 min 0 min 0,0 UV-I 0 W/m 2,6 km/h (1 Bft)
10.01.2013 08:00 4,3 C 3,4 C 98 % 0 lf 1014,2 hPa 0,0 l/m 0 min 0 min 0,0 UV-I 0 W/m 0,0 km/h (0 Bft)
10.01.2013 08:02 4,3 C 3,4 C 98 % 0 lf 1014,2 hPa 0,0 l/m 0 min 0 min 0,0 UV-I 0 W/m 0,0 km/h (0 Bft)
10.01.2013 08:04 4,3 C 3,4 C 98 % 0 lf 1014,2 hPa 0,0 l/m 0 min 0 min 0,0 UV-I 0 W/m 7,7 km/h (2 Bft)
10.01.2013 08:06 4,3 C 3,4 C 98 % 0 lf 1014,2 hPa 0,0 l/m 0 min 0 min 0,0 UV-I 0 W/m 5,1 km/h (1 Bft)
10.01.2013 08:08 4,3 C 3,4 C 98 % 0 lf 1014,2 hPa 0,0 l/m 0 min 0 min 0,0 UV-I 0 W/m 7,7 km/h (2 Bft)
10.01.2013 08:10 4,3 C 3,4 C 98 % 0 lf 1014,2 hPa 0,0 l/m 0 min 0 min 0,0 UV-I 0 W/m 7,7 km/h (2 Bft)
10.01.2013 08:12 4,3 C 3,4 C 98 % 0 lf 1014,1 hPa 0,0 l/m 0 min 0 min 0,0 UV-I 0 W/m 0,0 km/h (0 Bft)
10.01.2013 08:14 4,3 C 3,4 C 98 % 0 lf 1014,1 hPa 0,0 l/m 0 min 0 min 0,0 UV-I 0 W/m 0,0 km/h (0 Bft)
10.01.2013 08:16 4,3 C 2,9 C 98 % 0 lf 1014,0 hPa 0,0 l/m 0 min 0 min 0,0 UV-I 0 W/m 5,1 km/h (1 Bft)
10.01.2013 08:18 4,3 C 2,9 C 98 % 0 lf 1014,0 hPa 0,0 l/m 0 min 0 min 0,0 UV-I 0 W/m 0,0 km/h (0 Bft)
10.01.2013 08:20 4,3 C 2,9 C 98 % 0 lf 1014,0 hPa 0,0 l/m 0 min 0 min 0,0 UV-I 0 W/m 5,1 km/h (1 Bft)
10.01.2013 08:22 4,3 C 2,9 C 98 % 0 lf 1014,0 hPa 0,0 l/m 0 min 0 min 0,0 UV-I 0 W/m 7,7 km/h (2 Bft)
10.01.2013 08:24 4,3 C 2,9 C 98 % 0 lf 1014,0 hPa 0,0 l/m 0 min 0 min 0,0 UV-I 0 W/m 0,0 km/h (0 Bft)
10.01.2013 08:26 4,3 C 2,9 C 98 % 0 lf 1013,9 hPa 0,0 l/m 0 min 0 min 0,0 UV-I 0 W/m 10,3 km/h (2 Bft)
10.01.2013 08:28 4,3 C 2,9 C 98 % 0 lf 1013,9 hPa 0,0 l/m 0 min 0 min 0,0 UV-I 0 W/m 12,9 km/h (3 Bft)
10.01.2013 08:30 4,2 C 2,9 C 98 % 0 lf 1014,0 hPa 0,0 l/m 0 min 0 min 0,0 UV-I 0 W/m 0,0 km/h (0 Bft)
10.01.2013 08:32 4,2 C 2,9 C 98 % 0 lf 1014,0 hPa 0,0 l/m 0 min 0 min 0,0 UV-I 0 W/m 5,1 km/h (1 Bft)
10.01.2013 08:34 4,2 C 2,9 C 98 % 0 lf 1013,9 hPa 0,0 l/m 0 min 0 min 0,0 UV-I 0 W/m 5,1 km/h (1 Bft)
10.01.2013 08:36 4,2 C 2,9 C 98 % 0 lf 1013,9 hPa 0,0 l/m 0 min 0 min 0,0 UV-I 0 W/m 0,0 km/h (0 Bft)
10.01.2013 08:38 4,2 C 2,9 C 98 % 0 lf 1013,9 hPa 0,0 l/m 0 min 0 min 0,0 UV-I 0 W/m 2,6 km/h (1 Bft)
10.01.2013 08:40 4,2 C 2,9 C 98 % 0 lf 1013,9 hPa 0,0 l/m 0 min 0 min 0,0 UV-I 0 W/m 10,3 km/h (2 Bft)
10.01.2013 08:42 4,2 C 2,9 C 98 % 0 lf 1013,9 hPa 0,0 l/m 0 min 0 min 0,0 UV-I 0 W/m 10,3 km/h (2 Bft)
10.01.2013 08:45 4,2 C 2,9 C 97 % 0 lf 1013,8 hPa 0,0 l/m 0 min 0 min 0,0 UV-I 5 W/m 10,3 km/h (2 Bft)
10.01.2013 08:50 4,1 C 2,9 C 97 % 0 lf 1013,8 hPa 0,0 l/m 0 min 0 min 0,0 UV-I 5 W/m 2,6 km/h (1 Bft)
10.01.2013 08:55 4,1 C 2,9 C 97 % 0 lf 1013,8 hPa 0,0 l/m 0 min 0 min 0,0 UV-I 7 W/m 7,7 km/h (2 Bft)
10.01.2013 09:00 4,1 C 2,9 C 97 % 0 lf 1013,9 hPa 0,0 l/m 0 min 0 min 0,0 UV-I 7 W/m 2,6 km/h (1 Bft)
10.01.2013 09:05 4,1 C 2,9 C 97 % 0 lf 1013,9 hPa 0,0 l/m 0 min 0 min 0,0 UV-I 9 W/m 2,6 km/h (1 Bft)
10.01.2013 09:10 4,0 C 2,9 C 97 % 0 lf 1013,8 hPa 0,0 l/m 0 min 0 min 0,0 UV-I 12 W/m 0,0 km/h (0 Bft)
10.01.2013 09:15 4,1 C 2,9 C 98 % 0 lf 1013,7 hPa 0,0 l/m 0 min 0 min 0,0 UV-I 12 W/m 0,0 km/h (0 Bft)
10.01.2013 09:20 4,1 C 2,9 C 98 % 0 lf 1013,6 hPa 0,0 l/m 0 min 0 min 0,0 UV-I 12 W/m 0,0 km/h (0 Bft)
10.01.2013 09:24 4,1 C 2,9 C 98 % 0 lf 1013,7 hPa 0,0 l/m 0 min 0 min 0,0 UV-I 12 W/m 2,6 km/h (1 Bft)
10.01.2013 09:26 4,1 C 2,9 C 98 % 0 lf 1013,7 hPa 0,0 l/m 0 min 0 min 0,0 UV-I 14 W/m 0,0 km/h (0 Bft)
10.01.2013 09:28 4,1 C 3,4 C 98 % 0 lf 1013,7 hPa 0,0 l/m 0 min 0 min 0,0 UV-I 14 W/m 0,0 km/h (0 Bft)
10.01.2013 09:30 4,1 C 3,4 C 98 % 0 lf 1013,7 hPa 0,0 l/m 0 min 0 min 0,0 UV-I 14 W/m 0,0 km/h (0 Bft)
10.01.2013 09:32 4,1 C 3,4 C 98 % 0 lf 1013,7 hPa 0,0 l/m 0 min 0 min 0,0 UV-I 14 W/m 0,0 km/h (0 Bft)
10.01.2013 09:34 4,1 C 3,4 C 98 % 0 lf 1013,7 hPa 0,0 l/m 0 min 0 min 0,0 UV-I 14 W/m 0,0 km/h (0 Bft)
10.01.2013 09:36 4,1 C 3,4 C 98 % 0 lf 1013,7 hPa 0,0 l/m 0 min 0 min 0,0 UV-I 14 W/m 0,0 km/h (0 Bft)
10.01.2013 09:38 4,1 C 3,4 C 98 % 0 lf 1013,9 hPa 0,0 l/m 0 min 0 min 0,0 UV-I 14 W/m 0,0 km/h (0 Bft)
10.01.2013 09:40 4,1 C 3,4 C 98 % 0 lf 1013,9 hPa 0,0 l/m 0 min 0 min 0,0 UV-I 14 W/m 2,6 km/h (1 Bft)
10.01.2013 09:42 4,1 C 3,4 C 98 % 0 lf 1013,8 hPa 0,0 l/m 0 min 0 min 0,0 UV-I 14 W/m 0,0 km/h (0 Bft)
10.01.2013 09:44 4,1 C 3,4 C 98 % 0 lf 1013,8 hPa 0,0 l/m 0 min 0 min 0,0 UV-I 16 W/m 0,0 km/h (0 Bft)
10.01.2013 09:46 4,1 C 3,4 C 98 % 0 lf 1013,8 hPa 0,0 l/m 0 min 0 min 0,0 UV-I 16 W/m 0,0 km/h (0 Bft)
10.01.2013 09:48 4,1 C 3,4 C 98 % 0 lf 1013,8 hPa 0,0 l/m 0 min 0 min 0,0 UV-I 18 W/m 0,0 km/h (0 Bft)
10.01.2013 09:50 4,1 C 3,4 C 98 % 0 lf 1013,8 hPa 0,0 l/m 0 min 0 min 0,0 UV-I 19 W/m 2,6 km/h (1 Bft)
10.01.2013 09:52 4,2 C 3,4 C 98 % 0 lf 1013,8 hPa 0,0 l/m 0 min 0 min 0,0 UV-I 19 W/m 2,6 km/h (1 Bft)
10.01.2013 09:54 4,2 C 3,4 C 98 % 0 lf 1013,9 hPa 0,0 l/m 0 min 0 min 0,0 UV-I 21 W/m 5,1 km/h (1 Bft)
10.01.2013 09:56 4,2 C 3,4 C 98 % 0 lf 1013,8 hPa 0,0 l/m 0 min 0 min 0,0 UV-I 21 W/m 10,3 km/h (2 Bft)
10.01.2013 09:58 4,2 C 3,4 C 98 % 0 lf 1013,9 hPa 0,0 l/m 0 min 0 min 0,0 UV-I 21 W/m 7,7 km/h (2 Bft)
10.01.2013 10:00 4,2 C 3,4 C 98 % 0 lf 1013,9 hPa 0,0 l/m 0 min 0 min 0,0 UV-I 23 W/m 0,0 km/h (0 Bft)
10.01.2013 10:02 4,2 C 3,4 C 98 % 0 lf 1013,8 hPa 0,0 l/m 0 min 0 min 0,0 UV-I 26 W/m 2,6 km/h (1 Bft)
10.01.2013 10:04 4,2 C 3,4 C 98 % 0 lf 1013,8 hPa 0,0 l/m 0 min 0 min 0,0 UV-I 26 W/m 0,0 km/h (0 Bft)
10.01.2013 10:06 4,2 C 3,4 C 98 % 0 lf 1013,9 hPa 0,0 l/m 0 min 0 min 0,0 UV-I 26 W/m 0,0 km/h (0 Bft)
10.01.2013 10:08 4,2 C 3,4 C 98 % 0 lf 1013,8 hPa 0,0 l/m 0 min 0 min 0,0 UV-I 26 W/m 7,7 km/h (2 Bft)
10.01.2013 10:10 4,3 C 3,4 C 98 % 0 lf 1013,9 hPa 0,0 l/m 0 min 0 min 0,0 UV-I 26 W/m 10,3 km/h (2 Bft)
10.01.2013 10:12 4,3 C 3,4 C 98 % 0 lf 1013,9 hPa 0,0 l/m 0 min 0 min 0,0 UV-I 25 W/m 7,7 km/h (2 Bft)
10.01.2013 10:14 4,3 C 3,4 C 98 % 0 lf 1013,8 hPa 0,0 l/m 0 min 0 min 0,0 UV-I 26 W/m 10,3 km/h (2 Bft)
10.01.2013 10:16 4,3 C 3,4 C 98 % 0 lf 1013,7 hPa 0,0 l/m 0 min 0 min 0,0 UV-I 26 W/m 0,0 km/h (0 Bft)
10.01.2013 10:18 4,3 C 3,4 C 98 % 0 lf 1013,8 hPa 0,0 l/m 0 min 0 min 0,0 UV-I 28 W/m 0,0 km/h (0 Bft)
10.01.2013 10:20 4,3 C 3,4 C 98 % 0 lf 1013,8 hPa 0,0 l/m 0 min 0 min 0,0 UV-I 30 W/m 5,1 km/h (1 Bft)
10.01.2013 10:22 4,3 C 3,4 C 98 % 0 lf 1013,9 hPa 0,0 l/m 0 min 0 min 0,0 UV-I 32 W/m 7,7 km/h (2 Bft)
10.01.2013 10:24 4,4 C 4,0 C 98 % 0 lf 1013,9 hPa 0,0 l/m 0 min 0 min 0,0 UV-I 32 W/m 5,1 km/h (1 Bft)
10.01.2013 10:26 4,4 C 4,0 C 98 % 0 lf 1013,9 hPa 0,0 l/m 0 min 0 min 0,0 UV-I 32 W/m 2,6 km/h (1 Bft)
10.01.2013 10:28 4,4 C 4,0 C 98 % 0 lf 1013,7 hPa 0,0 l/m 0 min 0 min 0,0 UV-I 33 W/m 5,1 km/h (1 Bft)
10.01.2013 10:30 4,4 C 4,0 C 98 % 0 lf 1013,9 hPa 0,0 l/m 0 min 0 min 0,0 UV-I 28 W/m 12,9 km/h (3 Bft)
10.01.2013 10:32 4,5 C 4,0 C 98 % 0 lf 1013,8 hPa 0,0 l/m 0 min 0 min 0,0 UV-I 26 W/m 0,0 km/h (0 Bft)
10.01.2013 10:34 4,6 C 4,0 C 98 % 0 lf 1013,8 hPa 0,0 l/m 0 min 0 min 0,0 UV-I 28 W/m 2,6 km/h (1 Bft)
10.01.2013 10:36 4,6 C 4,0 C 98 % 0 lf 1013,8 hPa 0,0 l/m 0 min 0 min 0,0 UV-I 33 W/m 10,3 km/h (2 Bft)
10.01.2013 10:38 4,6 C 4,0 C 98 % 0 lf 1013,7 hPa 0,0 l/m 0 min 0 min 0,0 UV-I 35 W/m 7,7 km/h (2 Bft)
10.01.2013 10:40 4,6 C 4,0 C 98 % 0 lf 1013,8 hPa 0,0 l/m 0 min 0 min 0,0 UV-I 39 W/m 7,7 km/h (2 Bft)
10.01.2013 10:42 4,6 C 4,0 C 98 % 0 lf 1013,8 hPa 0,0 l/m 0 min 0 min 0,0 UV-I 37 W/m 0,0 km/h (0 Bft)
10.01.2013 10:44 4,7 C 4,0 C 98 % 0 lf 1013,8 hPa 0,0 l/m 0 min 0 min 0,0 UV-I 39 W/m 5,1 km/h (1 Bft)
10.01.2013 10:46 4,7 C 4,0 C 98 % 0 lf 1013,8 hPa 0,0 l/m 0 min 0 min 0,0 UV-I 35 W/m 7,7 km/h (2 Bft)
10.01.2013 10:48 4,7 C 4,0 C 98 % 0 lf 1013,9 hPa 0,0 l/m 0 min 0 min 0,0 UV-I 35 W/m 0,0 km/h (0 Bft)
10.01.2013 10:50 4,7 C 4,0 C 98 % 0 lf 1013,9 hPa 0,0 l/m 0 min 0 min 0,0 UV-I 33 W/m 0,0 km/h (0 Bft)
10.01.2013 10:52 4,7 C 4,0 C 98 % 0 lf 1013,9 hPa 0,0 l/m 0 min 0 min 0,0 UV-I 37 W/m 0,0 km/h (0 Bft)
10.01.2013 10:54 4,7 C 4,0 C 98 % 0 lf 1013,9 hPa 0,0 l/m 0 min 0 min 0,0 UV-I 44 W/m 2,6 km/h (1 Bft)
10.01.2013 10:56 4,7 C 4,0 C 98 % 0 lf 1013,9 hPa 0,0 l/m 0 min 0 min 0,0 UV-I 54 W/m 7,7 km/h (2 Bft)
10.01.2013 10:58 4,7 C 4,0 C 97 % 0 lf 1013,9 hPa 0,0 l/m 0 min 0 min 0,0 UV-I 58 W/m 0,0 km/h (0 Bft)
10.01.2013 11:00 4,7 C 4,0 C 97 % 0 lf 1013,9 hPa 0,0 l/m 0 min 0 min 0,0 UV-I 53 W/m 7,7 km/h (2 Bft)
10.01.2013 11:02 4,7 C 4,6 C 97 % 0 lf 1013,9 hPa 0,0 l/m 0 min 0 min 0,0 UV-I 54 W/m 7,7 km/h (2 Bft)
10.01.2013 11:04 4,8 C 4,6 C 97 % 0 lf 1013,9 hPa 0,0 l/m 0 min 0 min 0,0 UV-I 58 W/m 5,1 km/h (1 Bft)
10.01.2013 11:06 4,8 C 4,6 C 97 % 0 lf 1013,8 hPa 0,0 l/m 0 min 0 min 0,0 UV-I 56 W/m 7,7 km/h (2 Bft)
10.01.2013 11:08 4,8 C 4,6 C 97 % 0 lf 1013,8 hPa 0,0 l/m 0 min 0 min 0,0 UV-I 53 W/m 0,0 km/h (0 Bft)
10.01.2013 11:10 4,8 C 4,6 C 97 % 0 lf 1013,8 hPa 0,0 l/m 0 min 0 min 0,0 UV-I 51 W/m 10,3 km/h (2 Bft)
10.01.2013 11:12 4,8 C 4,6 C 97 % 0 lf 1013,8 hPa 0,0 l/m 0 min 0 min 0,0 UV-I 51 W/m 12,9 km/h (3 Bft)
10.01.2013 11:14 4,8 C 4,6 C 97 % 0 lf 1013,7 hPa 0,0 l/m 0 min 0 min 0,0 UV-I 46 W/m 7,7 km/h (2 Bft)
10.01.2013 11:16 4,8 C 4,6 C 97 % 0 lf 1013,7 hPa 0,0 l/m 0 min 0 min 0,0 UV-I 44 W/m 0,0 km/h (0 Bft)
10.01.2013 11:18 4,8 C 4,6 C 97 % 0 lf 1013,7 hPa 0,0 l/m 0 min 0 min 0,0 UV-I 39 W/m 7,7 km/h (2 Bft)
10.01.2013 11:20 4,8 C 4,6 C 97 % 1 lf 1013,7 hPa 0,0 l/m 0 min 0 min 0,0 UV-I 35 W/m 7,7 km/h (2 Bft)
10.01.2013 11:22 4,8 C 4,6 C 97 % 0 lf 1013,7 hPa 0,0 l/m 0 min 0 min 0,0 UV-I 35 W/m 10,3 km/h (2 Bft)
10.01.2013 11:24 4,8 C 4,0 C 97 % 0 lf 1013,6 hPa 0,0 l/m 0 min 0 min 0,0 UV-I 32 W/m 12,9 km/h (3 Bft)
10.01.2013 11:26 4,8 C 4,0 C 97 % 0 lf 1013,6 hPa 0,0 l/m 0 min 0 min 0,0 UV-I 32 W/m 0,0 km/h (0 Bft)
10.01.2013 11:28 4,8 C 4,0 C 96 % 0 lf 1013,6 hPa 0,0 l/m 0 min 0 min 0,0 UV-I 28 W/m 5,1 km/h (1 Bft)
10.01.2013 11:30 4,8 C 4,0 C 96 % 0 lf 1013,6 hPa 0,0 l/m 0 min 0 min 0,0 UV-I 19 W/m 2,6 km/h (1 Bft)
10.01.2013 11:32 4,8 C 4,0 C 96 % 0 lf 1013,5 hPa 0,0 l/m 0 min 0 min 0,0 UV-I 16 W/m 12,9 km/h (3 Bft)
10.01.2013 11:34 4,8 C 4,0 C 96 % 0 lf 1013,5 hPa 0,0 l/m 0 min 0 min 0,0 UV-I 14 W/m 5,1 km/h (1 Bft)
10.01.2013 11:36 4,8 C 4,0 C 96 % 0 lf 1013,5 hPa 0,0 l/m 0 min 0 min 0,0 UV-I 12 W/m 7,7 km/h (2 Bft)
10.01.2013 11:38 4,8 C 4,0 C 96 % 0 lf 1013,4 hPa 0,0 l/m 0 min 0 min 0,0 UV-I 12 W/m 7,7 km/h (2 Bft)
10.01.2013 11:40 4,8 C 4,0 C 96 % 0 lf 1013,5 hPa 0,0 l/m 0 min 0 min 0,0 UV-I 16 W/m 7,7 km/h (2 Bft)
10.01.2013 11:42 4,8 C 4,0 C 96 % 0 lf 1013,4 hPa 0,0 l/m 0 min 0 min 0,0 UV-I 23 W/m 2,6 km/h (1 Bft)
10.01.2013 11:44 4,8 C 4,0 C 96 % 0 lf 1013,4 hPa 0,0 l/m 0 min 0 min 0,0 UV-I 32 W/m 5,1 km/h (1 Bft)
10.01.2013 11:46 4,8 C 4,0 C 96 % 0 lf 1013,3 hPa 0,0 l/m 0 min 0 min 0,0 UV-I 46 W/m 10,3 km/h (2 Bft)
10.01.2013 11:48 4,8 C 4,0 C 96 % 0 lf 1013,4 hPa 0,0 l/m 0 min 0 min 0,0 UV-I 54 W/m 10,3 km/h (2 Bft)
10.01.2013 11:50 4,8 C 4,0 C 96 % 0 lf 1013,3 hPa 0,0 l/m 0 min 0 min 0,0 UV-I 63 W/m 5,1 km/h (1 Bft)
10.01.2013 11:52 4,8 C 4,6 C 96 % 0 lf 1013,2 hPa 0,0 l/m 0 min 0 min 0,0 UV-I 69 W/m 0,0 km/h (0 Bft)
10.01.2013 11:54 4,9 C 4,6 C 96 % 0 lf 1013,2 hPa 0,0 l/m 0 min 0 min 0,0 UV-I 67 W/m 2,6 km/h (1 Bft)
10.01.2013 11:56 4,9 C 4,6 C 96 % 0 lf 1013,0 hPa 0,0 l/m 0 min 0 min 0,0 UV-I 67 W/m 5,1 km/h (1 Bft)
10.01.2013 11:58 4,9 C 4,6 C 96 % 0 lf 1013,0 hPa 0,0 l/m 0 min 0 min 0,0 UV-I 86 W/m 0,0 km/h (0 Bft)
10.01.2013 12:00 4,9 C 4,6 C 96 % 0 lf 1013,1 hPa 0,0 l/m 0 min 0 min 0,0 UV-I 97 W/m 7,7 km/h (2 Bft)
10.01.2013 12:02 4,9 C 4,6 C 96 % 0 lf 1012,9 hPa 0,0 l/m 0 min 0 min 0,0 UV-I 91 W/m 7,7 km/h (2 Bft)
10.01.2013 12:04 4,9 C 4,6 C 96 % 0 lf 1012,9 hPa 0,0 l/m 0 min 0 min 0,0 UV-I 98 W/m 7,7 km/h (2 Bft)
10.01.2013 12:06 4,9 C 4,6 C 96 % 0 lf 1012,8 hPa 0,0 l/m 0 min 0 min 0,0 UV-I 109 W/m 2,6 km/h (1 Bft)
10.01.2013 12:08 5,0 C 4,6 C 95 % 0 lf 1012,9 hPa 0,0 l/m 0 min 0 min 0,0 UV-I 113 W/m 5,1 km/h (1 Bft)
10.01.2013 12:10 5,1 C 4,6 C 96 % 0 lf 1012,8 hPa 0,0 l/m 0 min 0 min 0,0 UV-I 121 W/m 7,7 km/h (2 Bft)
10.01.2013 12:12 5,1 C 4,6 C 96 % 0 lf 1012,8 hPa 0,0 l/m 0 min 0 min 0,0 UV-I 139 W/m 10,3 km/h (2 Bft)
10.01.2013 12:14 5,1 C 5,1 C 95 % 0 lf 1012,8 hPa 0,0 l/m 0 min 0 min 0,0 UV-I 137 W/m 5,1 km/h (1 Bft)
10.01.2013 12:16 5,1 C 5,1 C 95 % 0 lf 1012,8 hPa 0,0 l/m 0 min 0 min 0,0 UV-I 116 W/m 7,7 km/h (2 Bft)
10.01.2013 12:18 5,2 C 5,1 C 95 % 0 lf 1012,7 hPa 0,0 l/m 0 min 0 min 0,0 UV-I 100 W/m 10,3 km/h (2 Bft)
10.01.2013 12:20 5,2 C 4,6 C 95 % 0 lf 1012,7 hPa 0,0 l/m 0 min 0 min 0,0 UV-I 97 W/m 10,3 km/h (2 Bft)
10.01.2013 12:22 5,2 C 4,6 C 95 % 0 lf 1012,7 hPa 0,0 l/m 0 min 0 min 0,0 UV-I 114 W/m 10,3 km/h (2 Bft)
10.01.2013 12:24 5,2 C 5,1 C 95 % 0 lf 1012,7 hPa 0,0 l/m 2 min 0 min 0,0 UV-I 211 W/m 7,7 km/h (2 Bft)
10.01.2013 12:26 5,3 C 5,1 C 95 % 0 lf 1012,7 hPa 0,0 l/m 2 min 0 min 0,0 UV-I 313 W/m 7,7 km/h (2 Bft)
10.01.2013 12:28 5,4 C 5,1 C 95 % 0 lf 1012,7 hPa 0,0 l/m 2 min 0 min 0,0 UV-I 290 W/m 10,3 km/h (2 Bft)
10.01.2013 12:30 5,4 C 5,1 C 95 % 0 lf 1012,7 hPa 0,0 l/m 2 min 0 min 0,0 UV-I 188 W/m 10,3 km/h (2 Bft)
10.01.2013 12:32 5,5 C 5,1 C 95 % 0 lf 1012,6 hPa 0,0 l/m 0 min 0 min 0,0 UV-I 155 W/m 15,4 km/h (3 Bft)
10.01.2013 12:34 5,6 C 5,1 C 95 % 0 lf 1012,6 hPa 0,0 l/m 0 min 0 min 0,0 UV-I 142 W/m 5,1 km/h (1 Bft)
10.01.2013 12:36 5,6 C 5,1 C 95 % 0 lf 1012,6 hPa 0,0 l/m 2 min 0 min 0,0 UV-I 214 W/m 7,7 km/h (2 Bft)
10.01.2013 12:38 5,6 C 5,1 C 95 % 0 lf 1012,6 hPa 0,0 l/m 2 min 0 min 0,0 UV-I 251 W/m 10,3 km/h (2 Bft)
10.01.2013 12:40 5,7 C 5,1 C 94 % 0 lf 1012,6 hPa 0,0 l/m 2 min 0 min 0,0 UV-I 195 W/m 10,3 km/h (2 Bft)
10.01.2013 12:42 5,7 C 5,1 C 94 % 0 lf 1012,6 hPa 0,0 l/m 2 min 0 min 0,0 UV-I 206 W/m 20,6 km/h (4 Bft)
10.01.2013 12:44 5,7 C 5,1 C 94 % 0 lf 1012,6 hPa 0,0 l/m 0 min 0 min 0,0 UV-I 163 W/m 15,4 km/h (3 Bft)
10.01.2013 12:46 5,8 C 5,1 C 94 % 0 lf 1012,5 hPa 0,0 l/m 0 min 0 min 0,0 UV-I 153 W/m 12,9 km/h (3 Bft)
10.01.2013 12:48 5,8 C 5,1 C 93 % 0 lf 1012,5 hPa 0,0 l/m 2 min 0 min 0,0 UV-I 197 W/m 15,4 km/h (3 Bft)
10.01.2013 12:50 5,8 C 5,1 C 93 % 0 lf 1012,4 hPa 0,0 l/m 2 min 0 min 0,0 UV-I 176 W/m 7,7 km/h (2 Bft)
10.01.2013 12:52 5,8 C 5,1 C 93 % 0 lf 1012,4 hPa 0,0 l/m 2 min 0 min 0,0 UV-I 165 W/m 10,3 km/h (2 Bft)
10.01.2013 12:54 5,9 C 5,1 C 93 % 0 lf 1012,4 hPa 0,0 l/m 0 min 0 min 0,0 UV-I 149 W/m 12,9 km/h (3 Bft)
10.01.2013 12:56 5,9 C 5,1 C 93 % 0 lf 1012,4 hPa 0,0 l/m 0 min 0 min 0,0 UV-I 121 W/m 15,4 km/h (3 Bft)
10.01.2013 12:58 5,9 C 5,1 C 93 % 0 lf 1012,3 hPa 0,0 l/m 0 min 0 min 0,0 UV-I 148 W/m 0,0 km/h (0 Bft)
10.01.2013 13:00 6,0 C 5,1 C 93 % 0 lf 1012,3 hPa 0,0 l/m 0 min 0 min 0,0 UV-I 83 W/m 10,3 km/h (2 Bft)
10.01.2013 13:02 6,1 C 5,1 C 93 % 0 lf 1012,3 hPa 0,0 l/m 0 min 0 min 0,0 UV-I 125 W/m 10,3 km/h (2 Bft)
10.01.2013 13:04 6,1 C 5,1 C 92 % 0 lf 1012,2 hPa 0,0 l/m 0 min 0 min 0,0 UV-I 155 W/m 10,3 km/h (2 Bft)
10.01.2013 13:06 6,1 C 5,1 C 92 % 0 lf 1012,2 hPa 0,0 l/m 0 min 0 min 0,0 UV-I 151 W/m 18,0 km/h (3 Bft)
10.01.2013 13:08 6,2 C 5,1 C 92 % 0 lf 1012,1 hPa 0,0 l/m 2 min 0 min 0,0 UV-I 211 W/m 12,9 km/h (3 Bft)
10.01.2013 13:10 6,2 C 5,7 C 92 % 0 lf 1012,1 hPa 0,0 l/m 2 min 0 min 0,0 UV-I 227 W/m 0,0 km/h (0 Bft)
10.01.2013 13:12 6,3 C 5,7 C 92 % 0 lf 1012,1 hPa 0,0 l/m 0 min 0 min 0,0 UV-I 144 W/m 10,3 km/h (2 Bft)
10.01.2013 13:14 6,3 C 5,7 C 92 % 0 lf 1012,1 hPa 0,0 l/m 2 min 0 min 0,0 UV-I 200 W/m 12,9 km/h (3 Bft)
10.01.2013 13:16 6,3 C 5,7 C 92 % 0 lf 1012,1 hPa 0,0 l/m 0 min 0 min 0,0 UV-I 149 W/m 10,3 km/h (2 Bft)
10.01.2013 13:18 6,4 C 5,7 C 92 % 0 lf 1012,1 hPa 0,0 l/m 0 min 0 min 0,0 UV-I 130 W/m 15,4 km/h (3 Bft)
10.01.2013 13:20 6,4 C 5,7 C 92 % 0 lf 1012,1 hPa 0,0 l/m 0 min 0 min 0,0 UV-I 127 W/m 10,3 km/h (2 Bft)
10.01.2013 13:22 6,4 C 5,7 C 91 % 0 lf 1012,0 hPa 0,0 l/m 2 min 0 min 0,0 UV-I 220 W/m 10,3 km/h (2 Bft)
10.01.2013 13:24 6,5 C 5,7 C 91 % 0 lf 1011,9 hPa 0,0 l/m 0 min 0 min 0,0 UV-I 151 W/m 5,1 km/h (1 Bft)
10.01.2013 13:26 6,5 C 5,7 C 91 % 0 lf 1011,9 hPa 0,0 l/m 0 min 0 min 0,0 UV-I 77 W/m 0,0 km/h (0 Bft)
10.01.2013 13:28 6,6 C 5,7 C 91 % 0 lf 1011,9 hPa 0,0 l/m 0 min 0 min 0,0 UV-I 97 W/m 0,0 km/h (0 Bft)
10.01.2013 13:30 6,6 C 5,7 C 91 % 0 lf 1011,9 hPa 0,0 l/m 0 min 0 min 0,0 UV-I 120 W/m 5,1 km/h (1 Bft)
10.01.2013 13:32 6,6 C 5,7 C 91 % 0 lf 1011,8 hPa 0,0 l/m 0 min 0 min 0,0 UV-I 86 W/m 2,6 km/h (1 Bft)
10.01.2013 13:34 6,6 C 5,7 C 91 % 0 lf 1011,8 hPa 0,0 l/m 0 min 0 min 0,0 UV-I 79 W/m 12,9 km/h (3 Bft)
10.01.2013 13:36 6,6 C 5,7 C 90 % 0 lf 1011,8 hPa 0,0 l/m 0 min 0 min 0,0 UV-I 95 W/m 18,0 km/h (3 Bft)
10.01.2013 13:38 6,6 C 5,7 C 90 % 0 lf 1012,0 hPa 0,0 l/m 0 min 0 min 0,0 UV-I 83 W/m 12,9 km/h (3 Bft)
10.01.2013 13:40 6,5 C 5,7 C 90 % 0 lf 1011,9 hPa 0,0 l/m 2 min 0 min 0,0 UV-I 167 W/m 2,6 km/h (1 Bft)
10.01.2013 13:42 6,5 C 5,7 C 90 % 0 lf 1011,9 hPa 0,0 l/m 0 min 0 min 0,0 UV-I 93 W/m 12,9 km/h (3 Bft)
10.01.2013 13:44 6,4 C 5,1 C 89 % 0 lf 1011,9 hPa 0,0 l/m 0 min 0 min 0,0 UV-I 70 W/m 15,4 km/h (3 Bft)
10.01.2013 13:46 6,4 C 5,1 C 89 % 0 lf 1011,9 hPa 0,0 l/m 0 min 0 min 0,0 UV-I 70 W/m 10,3 km/h (2 Bft)
10.01.2013 13:48 6,4 C 5,1 C 89 % 0 lf 1011,8 hPa 0,0 l/m 0 min 0 min 0,0 UV-I 67 W/m 10,3 km/h (2 Bft)
10.01.2013 13:50 6,4 C 5,7 C 89 % 0 lf 1011,7 hPa 0,0 l/m 2 min 0 min 0,0 UV-I 241 W/m 5,1 km/h (1 Bft)
10.01.2013 13:52 6,4 C 5,7 C 89 % 0 lf 1011,9 hPa 0,0 l/m 2 min 0 min 0,0 UV-I 244 W/m 7,7 km/h (2 Bft)
10.01.2013 13:54 6,5 C 5,7 C 89 % 0 lf 1011,8 hPa 0,0 l/m 2 min 0 min 0,0 UV-I 244 W/m 10,3 km/h (2 Bft)
10.01.2013 13:56 6,5 C 5,7 C 89 % 0 lf 1011,8 hPa 0,0 l/m 2 min 0 min 0,0 UV-I 244 W/m 10,3 km/h (2 Bft)
10.01.2013 13:58 6,6 C 5,7 C 88 % 0 lf 1011,8 hPa 0,0 l/m 2 min 0 min 0,0 UV-I 269 W/m 7,7 km/h (2 Bft)
10.01.2013 14:00 6,6 C 5,7 C 88 % 0 lf 1011,8 hPa 0,0 l/m 2 min 0 min 0,0 UV-I 264 W/m 12,9 km/h (3 Bft)
10.01.2013 14:02 6,6 C 6,2 C 88 % 0 lf 1011,8 hPa 0,0 l/m 2 min 0 min 0,0 UV-I 260 W/m 5,1 km/h (1 Bft)
10.01.2013 14:04 6,7 C 6,2 C 88 % 0 lf 1011,8 hPa 0,0 l/m 2 min 0 min 0,0 UV-I 225 W/m 7,7 km/h (2 Bft)
10.01.2013 14:06 6,7 C 6,2 C 88 % 0 lf 1011,8 hPa 0,0 l/m 0 min 0 min 0,0 UV-I 98 W/m 0,0 km/h (0 Bft)
10.01.2013 14:08 6,8 C 6,2 C 88 % 0 lf 1011,8 hPa 0,0 l/m 0 min 0 min 0,0 UV-I 120 W/m 7,7 km/h (2 Bft)
10.01.2013 14:10 6,8 C 6,2 C 88 % 0 lf 1011,7 hPa 0,0 l/m 2 min 0 min 0,0 UV-I 281 W/m 7,7 km/h (2 Bft)
10.01.2013 14:12 6,9 C 6,8 C 88 % 0 lf 1011,7 hPa 0,0 l/m 2 min 0 min 0,0 UV-I 288 W/m 7,7 km/h (2 Bft)
10.01.2013 14:14 7,0 C 6,2 C 88 % 0 lf 1011,7 hPa 0,0 l/m 2 min 0 min 0,0 UV-I 274 W/m 7,7 km/h (2 Bft)
10.01.2013 14:16 7,1 C 6,2 C 87 % 0 lf 1011,6 hPa 0,0 l/m 0 min 0 min 0,0 UV-I 67 W/m 7,7 km/h (2 Bft)
10.01.2013 14:18 7,2 C 6,2 C 87 % 0 lf 1011,6 hPa 0,0 l/m 2 min 0 min 0,0 UV-I 211 W/m 12,9 km/h (3 Bft)
10.01.2013 14:20 7,2 C 6,2 C 87 % 0 lf 1011,6 hPa 0,0 l/m 2 min 0 min 0,0 UV-I 267 W/m 0,0 km/h (0 Bft)
10.01.2013 14:22 7,2 C 6,2 C 87 % 0 lf 1011,7 hPa 0,0 l/m 2 min 0 min 0,0 UV-I 290 W/m 2,6 km/h (1 Bft)
10.01.2013 14:24 7,2 C 6,2 C 86 % 0 lf 1011,6 hPa 0,0 l/m 2 min 0 min 0,0 UV-I 134 W/m 7,7 km/h (2 Bft)
10.01.2013 14:26 7,2 C 6,2 C 86 % 0 lf 1011,7 hPa 0,0 l/m 2 min 0 min 0,0 UV-I 253 W/m 0,0 km/h (0 Bft)
10.01.2013 14:28 7,2 C 6,8 C 86 % 0 lf 1011,8 hPa 0,0 l/m 2 min 0 min 0,0 UV-I 260 W/m 0,0 km/h (0 Bft)
10.01.2013 14:30 7,2 C 6,8 C 86 % 0 lf 1011,8 hPa 0,0 l/m 2 min 0 min 0,0 UV-I 248 W/m 10,3 km/h (2 Bft)
10.01.2013 14:32 7,2 C 6,8 C 85 % 0 lf 1011,8 hPa 0,0 l/m 2 min 0 min 0,0 UV-I 265 W/m 15,4 km/h (3 Bft)
10.01.2013 14:34 7,2 C 6,8 C 85 % 0 lf 1011,6 hPa 0,0 l/m 2 min 0 min 0,0 UV-I 171 W/m 10,3 km/h (2 Bft)
10.01.2013 14:36 7,2 C 6,8 C 84 % 0 lf 1011,7 hPa 0,0 l/m 2 min 0 min 0,0 UV-I 237 W/m 7,7 km/h (2 Bft)
10.01.2013 14:38 7,2 C 6,8 C 84 % 0 lf 1011,8 hPa 0,0 l/m 2 min 0 min 0,0 UV-I 241 W/m 15,4 km/h (3 Bft)
10.01.2013 14:40 7,2 C 6,2 C 84 % 0 lf 1011,7 hPa 0,0 l/m 2 min 0 min 0,0 UV-I 241 W/m 12,9 km/h (3 Bft)
10.01.2013 14:42 7,2 C 6,2 C 83 % 0 lf 1011,8 hPa 0,0 l/m 2 min 0 min 0,0 UV-I 158 W/m 20,6 km/h (4 Bft)
10.01.2013 14:44 7,2 C 6,2 C 83 % 0 lf 1011,7 hPa 0,0 l/m 0 min 0 min 0,0 UV-I 113 W/m 18,0 km/h (3 Bft)
10.01.2013 14:46 7,2 C 6,2 C 83 % 0 lf 1011,6 hPa 0,0 l/m 2 min 0 min 0,0 UV-I 225 W/m 20,6 km/h (4 Bft)
10.01.2013 14:48 7,1 C 6,2 C 83 % 0 lf 1011,6 hPa 0,0 l/m 2 min 0 min 0,0 UV-I 200 W/m 7,7 km/h (2 Bft)
10.01.2013 14:50 7,1 C 6,2 C 83 % 0 lf 1011,8 hPa 0,0 l/m 2 min 0 min 0,0 UV-I 141 W/m 5,1 km/h (1 Bft)
10.01.2013 14:52 7,1 C 6,2 C 84 % 0 lf 1011,7 hPa 0,0 l/m 2 min 0 min 0,0 UV-I 123 W/m 5,1 km/h (1 Bft)
10.01.2013 14:54 7,2 C 6,2 C 84 % 0 lf 1011,6 hPa 0,0 l/m 0 min 0 min 0,0 UV-I 97 W/m 0,0 km/h (0 Bft)
10.01.2013 14:56 7,2 C 6,2 C 84 % 0 lf 1011,6 hPa 0,0 l/m 0 min 0 min 0,0 UV-I 97 W/m 10,3 km/h (2 Bft)
10.01.2013 14:58 7,1 C 6,2 C 84 % 0 lf 1011,7 hPa 0,0 l/m 0 min 0 min 0,0 UV-I 81 W/m 7,7 km/h (2 Bft)
10.01.2013 15:00 7,1 C 5,7 C 84 % 0 lf 1011,6 hPa 0,0 l/m 0 min 0 min 0,0 UV-I 77 W/m 5,1 km/h (1 Bft)
10.01.2013 15:02 7,1 C 5,7 C 84 % 0 lf 1011,7 hPa 0,0 l/m 0 min 0 min 0,0 UV-I 81 W/m 7,7 km/h (2 Bft)
10.01.2013 15:04 7,1 C 5,7 C 84 % 0 lf 1011,6 hPa 0,0 l/m 0 min 0 min 0,0 UV-I 83 W/m 7,7 km/h (2 Bft)
10.01.2013 15:06 7,1 C 5,7 C 84 % 0 lf 1011,6 hPa 0,0 l/m 0 min 0 min 0,0 UV-I 98 W/m 12,9 km/h (3 Bft)
10.01.2013 15:08 7,1 C 5,7 C 84 % 0 lf 1011,6 hPa 0,0 l/m 0 min 0 min 0,0 UV-I 97 W/m 7,7 km/h (2 Bft)
10.01.2013 15:10 7,0 C 5,7 C 84 % 0 lf 1011,6 hPa 0,0 l/m 2 min 0 min 0,0 UV-I 98 W/m 2,6 km/h (1 Bft)
10.01.2013 15:12 7,0 C 5,7 C 84 % 0 lf 1011,6 hPa 0,0 l/m 0 min 0 min 0,0 UV-I 95 W/m 12,9 km/h (3 Bft)
10.01.2013 15:14 6,9 C 5,7 C 84 % 0 lf 1011,6 hPa 0,0 l/m 0 min 0 min 0,0 UV-I 86 W/m 0,0 km/h (0 Bft)
10.01.2013 15:16 6,9 C 5,7 C 84 % 0 lf 1011,6 hPa 0,0 l/m 0 min 0 min 0,0 UV-I 77 W/m 5,1 km/h (1 Bft)
10.01.2013 15:18 6,9 C 5,7 C 84 % 0 lf 1011,6 hPa 0,0 l/m 0 min 0 min 0,0 UV-I 70 W/m 12,9 km/h (3 Bft)
10.01.2013 15:20 6,9 C 5,7 C 84 % 0 lf 1011,7 hPa 0,0 l/m 0 min 0 min 0,0 UV-I 69 W/m 10,3 km/h (2 Bft)
10.01.2013 15:22 6,9 C 5,7 C 84 % 0 lf 1011,6 hPa 0,0 l/m 0 min 0 min 0,0 UV-I 67 W/m 0,0 km/h (0 Bft)
10.01.2013 15:24 6,9 C 5,7 C 84 % 0 lf 1011,6 hPa 0,0 l/m 0 min 0 min 0,0 UV-I 63 W/m 10,3 km/h (2 Bft)
10.01.2013 15:26 6,8 C 5,7 C 84 % 0 lf 1011,7 hPa 0,0 l/m 0 min 0 min 0,0 UV-I 62 W/m 10,3 km/h (2 Bft)
10.01.2013 15:28 6,8 C 5,7 C 85 % 0 lf 1011,6 hPa 0,0 l/m 0 min 0 min 0,0 UV-I 56 W/m 5,1 km/h (1 Bft)
10.01.2013 15:30 6,8 C 5,7 C 84 % 0 lf 1011,7 hPa 0,0 l/m 0 min 0 min 0,0 UV-I 44 W/m 10,3 km/h (2 Bft)
10.01.2013 15:32 6,8 C 5,7 C 84 % 0 lf 1011,7 hPa 0,0 l/m 0 min 0 min 0,0 UV-I 39 W/m 5,1 km/h (1 Bft)
10.01.2013 15:34 6,8 C 5,7 C 85 % 0 lf 1011,6 hPa 0,0 l/m 0 min 0 min 0,0 UV-I 35 W/m 0,0 km/h (0 Bft)
10.01.2013 15:36 6,8 C 5,7 C 85 % 0 lf 1011,6 hPa 0,0 l/m 0 min 0 min 0,0 UV-I 32 W/m 10,3 km/h (2 Bft)
10.01.2013 15:38 6,8 C 5,7 C 84 % 0 lf 1011,7 hPa 0,0 l/m 0 min 0 min 0,0 UV-I 32 W/m 12,9 km/h (3 Bft)
10.01.2013 15:40 6,7 C 5,7 C 85 % 0 lf 1011,7 hPa 0,0 l/m 0 min 0 min 0,0 UV-I 30 W/m 10,3 km/h (2 Bft)
10.01.2013 15:42 6,7 C 5,1 C 85 % 0 lf 1011,6 hPa 0,0 l/m 0 min 0 min 0,0 UV-I 26 W/m 10,3 km/h (2 Bft)
10.01.2013 15:44 6,7 C 5,1 C 85 % 0 lf 1011,6 hPa 0,0 l/m 0 min 0 min 0,0 UV-I 25 W/m 0,0 km/h (0 Bft)
10.01.2013 15:46 6,7 C 5,1 C 85 % 0 lf 1011,6 hPa 0,0 l/m 0 min 0 min 0,0 UV-I 23 W/m 5,1 km/h (1 Bft)
10.01.2013 15:48 6,7 C 5,1 C 85 % 0 lf 1011,6 hPa 0,0 l/m 0 min 0 min 0,0 UV-I 21 W/m 5,1 km/h (1 Bft)
10.01.2013 15:50 6,6 C 5,1 C 86 % 0 lf 1011,6 hPa 0,0 l/m 0 min 0 min 0,0 UV-I 19 W/m 0,0 km/h (0 Bft)
10.01.2013 15:52 6,6 C 5,1 C 86 % 0 lf 1011,7 hPa 0,0 l/m 0 min 0 min 0,0 UV-I 19 W/m 5,1 km/h (1 Bft)
10.01.2013 15:54 6,6 C 5,1 C 86 % 0 lf 1011,6 hPa 0,0 l/m 0 min 0 min 0,0 UV-I 18 W/m 5,1 km/h (1 Bft)
10.01.2013 15:56 6,6 C 5,1 C 86 % 0 lf 1011,7 hPa 0,0 l/m 0 min 0 min 0,0 UV-I 16 W/m 5,1 km/h (1 Bft)
10.01.2013 15:58 6,6 C 5,1 C 86 % 0 lf 1011,6 hPa 0,0 l/m 0 min 0 min 0,0 UV-I 14 W/m 7,7 km/h (2 Bft)
10.01.2013 16:00 6,5 C 5,1 C 87 % 0 lf 1011,6 hPa 0,0 l/m 0 min 0 min 0,0 UV-I 12 W/m 2,6 km/h (1 Bft)
10.01.2013 16:02 6,5 C 5,1 C 87 % 0 lf 1011,6 hPa 0,0 l/m 0 min 0 min 0,0 UV-I 12 W/m 5,1 km/h (1 Bft)
10.01.2013 16:04 6,4 C 5,1 C 87 % 0 lf 1011,6 hPa 0,0 l/m 0 min 0 min 0,0 UV-I 12 W/m 7,7 km/h (2 Bft)
10.01.2013 16:06 6,4 C 5,1 C 87 % 0 lf 1011,6 hPa 0,0 l/m 0 min 0 min 0,0 UV-I 12 W/m 15,4 km/h (3 Bft)
10.01.2013 16:08 6,4 C 5,1 C 87 % 0 lf 1011,6 hPa 0,0 l/m 0 min 0 min 0,0 UV-I 11 W/m 5,1 km/h (1 Bft)
10.01.2013 16:10 6,4 C 5,1 C 87 % 0 lf 1011,6 hPa 0,0 l/m 0 min 0 min 0,0 UV-I 12 W/m 5,1 km/h (1 Bft)
10.01.2013 16:12 6,4 C 5,1 C 87 % 0 lf 1011,6 hPa 0,0 l/m 0 min 0 min 0,0 UV-I 12 W/m 5,1 km/h (1 Bft)
10.01.2013 16:14 6,3 C 5,1 C 87 % 0 lf 1011,6 hPa 0,0 l/m 0 min 0 min 0,0 UV-I 11 W/m 0,0 km/h (0 Bft)
10.01.2013 16:16 6,3 C 5,1 C 88 % 0 lf 1011,6 hPa 0,0 l/m 0 min 0 min 0,0 UV-I 11 W/m 0,0 km/h (0 Bft)
10.01.2013 16:18 6,3 C 5,1 C 88 % 0 lf 1011,6 hPa 0,0 l/m 0 min 0 min 0,0 UV-I 7 W/m 5,1 km/h (1 Bft)
10.01.2013 16:20 6,3 C 5,1 C 87 % 0 lf 1011,6 hPa 0,0 l/m 0 min 0 min 0,0 UV-I 5 W/m 5,1 km/h (1 Bft)
10.01.2013 16:22 6,3 C 5,1 C 88 % 0 lf 1011,6 hPa 0,0 l/m 0 min 0 min 0,0 UV-I 5 W/m 5,1 km/h (1 Bft)
10.01.2013 16:24 6,2 C 5,1 C 88 % 0 lf 1011,6 hPa 0,0 l/m 0 min 0 min 0,0 UV-I 5 W/m 0,0 km/h (0 Bft)
10.01.2013 16:26 6,2 C 4,6 C 88 % 0 lf 1011,6 hPa 0,0 l/m 0 min 0 min 0,0 UV-I 5 W/m 7,7 km/h (2 Bft)
10.01.2013 16:28 6,2 C 4,6 C 88 % 0 lf 1011,6 hPa 0,0 l/m 0 min 0 min 0,0 UV-I 0 W/m 0,0 km/h (0 Bft)
10.01.2013 16:30 6,2 C 4,6 C 88 % 0 lf 1011,6 hPa 0,0 l/m 0 min 0 min 0,0 UV-I 0 W/m 7,7 km/h (2 Bft)
10.01.2013 16:32 6,2 C 4,6 C 88 % 0 lf 1011,7 hPa 0,0 l/m 0 min 0 min 0,0 UV-I 0 W/m 2,6 km/h (1 Bft)
10.01.2013 16:34 6,2 C 4,6 C 88 % 0 lf 1011,6 hPa 0,0 l/m 0 min 0 min 0,0 UV-I 0 W/m 0,0 km/h (0 Bft)
10.01.2013 16:36 6,1 C 4,6 C 88 % 0 lf 1011,6 hPa 0,0 l/m 0 min 0 min 0,0 UV-I 0 W/m 0,0 km/h (0 Bft)
10.01.2013 16:38 6,1 C 4,6 C 88 % 0 lf 1011,6 hPa 0,0 l/m 0 min 0 min 0,0 UV-I 0 W/m 0,0 km/h (0 Bft)
10.01.2013 16:40 6,1 C 4,6 C 88 % 0 lf 1011,6 hPa 0,0 l/m 0 min 0 min 0,0 UV-I 0 W/m 5,1 km/h (1 Bft)
10.01.2013 16:42 6,1 C 4,6 C 88 % 0 lf 1011,6 hPa 0,0 l/m 0 min 0 min 0,0 UV-I 0 W/m 2,6 km/h (1 Bft)
10.01.2013 16:44 6,1 C 4,6 C 88 % 0 lf 1011,6 hPa 0,0 l/m 0 min 0 min 0,0 UV-I 0 W/m 7,7 km/h (2 Bft)
10.01.2013 16:46 6,1 C 4,6 C 88 % 0 lf 1011,6 hPa 0,0 l/m 0 min 0 min 0,0 UV-I 0 W/m 0,0 km/h (0 Bft)
10.01.2013 16:48 6,1 C 4,6 C 88 % 0 lf 1011,5 hPa 0,0 l/m 0 min 0 min 0,0 UV-I 0 W/m 2,6 km/h (1 Bft)
10.01.2013 16:50 6,0 C 4,6 C 88 % 0 lf 1011,5 hPa 0,0 l/m 0 min 0 min 0,0 UV-I 0 W/m 0,0 km/h (0 Bft)
10.01.2013 16:52 6,0 C 4,6 C 88 % 0 lf 1011,6 hPa 0,0 l/m 0 min 0 min 0,0 UV-I 0 W/m 7,7 km/h (2 Bft)
10.01.2013 16:54 6,0 C 4,6 C 88 % 0 lf 1011,5 hPa 0,0 l/m 0 min 0 min 0,0 UV-I 0 W/m 10,3 km/h (2 Bft)
10.01.2013 16:56 6,0 C 4,6 C 88 % 0 lf 1011,5 hPa 0,0 l/m 0 min 0 min 0,0 UV-I 0 W/m 5,1 km/h (1 Bft)
10.01.2013 16:58 5,9 C 4,6 C 88 % 0 lf 1011,4 hPa 0,0 l/m 0 min 0 min 0,0 UV-I 0 W/m 7,7 km/h (2 Bft)
10.01.2013 17:00 5,9 C 4,6 C 88 % 0 lf 1011,5 hPa 0,0 l/m 0 min 0 min 0,0 UV-I 0 W/m 7,7 km/h (2 Bft)
10.01.2013 17:02 5,9 C 4,6 C 88 % 0 lf 1011,5 hPa 0,0 l/m 0 min 0 min 0,0 UV-I 0 W/m 0,0 km/h (0 Bft)
10.01.2013 17:04 5,9 C 4,6 C 89 % 0 lf 1011,5 hPa 0,0 l/m 0 min 0 min 0,0 UV-I 0 W/m 0,0 km/h (0 Bft)
10.01.2013 17:06 5,9 C 4,6 C 89 % 0 lf 1011,4 hPa 0,0 l/m 0 min 0 min 0,0 UV-I 0 W/m 7,7 km/h (2 Bft)
10.01.2013 17:08 5,9 C 4,6 C 88 % 0 lf 1011,4 hPa 0,0 l/m 0 min 0 min 0,0 UV-I 0 W/m 5,1 km/h (1 Bft)
10.01.2013 17:10 5,9 C 4,6 C 88 % 0 lf 1011,4 hPa 0,0 l/m 0 min 0 min 0,0 UV-I 0 W/m 7,7 km/h (2 Bft)
10.01.2013 17:12 5,9 C 4,6 C 88 % 0 lf 1011,3 hPa 0,0 l/m 0 min 0 min 0,0 UV-I 0 W/m 10,3 km/h (2 Bft)
10.01.2013 17:14 5,9 C 4,6 C 88 % 0 lf 1011,3 hPa 0,0 l/m 0 min 0 min 0,0 UV-I 0 W/m 5,1 km/h (1 Bft)
10.01.2013 17:16 5,9 C 4,6 C 88 % 0 lf 1011,3 hPa 0,0 l/m 0 min 0 min 0,0 UV-I 0 W/m 10,3 km/h (2 Bft)
10.01.2013 17:18 5,8 C 4,6 C 88 % 0 lf 1011,3 hPa 0,0 l/m 0 min 0 min 0,0 UV-I 0 W/m 0,0 km/h (0 Bft)
10.01.2013 17:20 5,8 C 4,6 C 88 % 0 lf 1011,3 hPa 0,0 l/m 0 min 0 min 0,0 UV-I 0 W/m 5,1 km/h (1 Bft)
10.01.2013 17:22 5,8 C 4,6 C 88 % 0 lf 1011,3 hPa 0,0 l/m 0 min 0 min 0,0 UV-I 0 W/m 5,1 km/h (1 Bft)
10.01.2013 17:24 5,8 C 4,6 C 88 % 0 lf 1011,3 hPa 0,0 l/m 0 min 0 min 0,0 UV-I 0 W/m 0,0 km/h (0 Bft)
10.01.2013 17:26 5,8 C 4,6 C 88 % 0 lf 1011,3 hPa 0,0 l/m 0 min 0 min 0,0 UV-I 0 W/m 0,0 km/h (0 Bft)
10.01.2013 17:28 5,8 C 4,6 C 88 % 0 lf 1011,2 hPa 0,0 l/m 0 min 0 min 0,0 UV-I 0 W/m 0,0 km/h (0 Bft)
10.01.2013 17:30 5,8 C 4,6 C 89 % 0 lf 1011,2 hPa 0,0 l/m 0 min 0 min 0,0 UV-I 0 W/m 0,0 km/h (0 Bft)
10.01.2013 17:32 5,8 C 4,6 C 89 % 0 lf 1011,3 hPa 0,0 l/m 0 min 0 min 0,0 UV-I 0 W/m 0,0 km/h (0 Bft)
10.01.2013 17:34 5,8 C 4,6 C 88 % 0 lf 1011,2 hPa 0,0 l/m 0 min 0 min 0,0 UV-I 0 W/m 0,0 km/h (0 Bft)
10.01.2013 17:36 5,8 C 4,6 C 88 % 0 lf 1011,1 hPa 0,0 l/m 0 min 0 min 0,0 UV-I 0 W/m 0,0 km/h (0 Bft)
10.01.2013 17:38 5,8 C 4,6 C 89 % 0 lf 1011,1 hPa 0,0 l/m 0 min 0 min 0,0 UV-I 0 W/m 0,0 km/h (0 Bft)
10.01.2013 17:40 5,8 C 4,6 C 89 % 0 lf 1011,2 hPa 0,0 l/m 0 min 0 min 0,0 UV-I 0 W/m 0,0 km/h (0 Bft)
10.01.2013 17:42 5,8 C 4,6 C 89 % 0 lf 1011,2 hPa 0,0 l/m 0 min 0 min 0,0 UV-I 0 W/m 7,7 km/h (2 Bft)
10.01.2013 17:44 5,8 C 4,6 C 89 % 0 lf 1011,2 hPa 0,0 l/m 0 min 0 min 0,0 UV-I 0 W/m 7,7 km/h (2 Bft)
10.01.2013 17:46 5,8 C 4,6 C 89 % 0 lf 1011,2 hPa 0,0 l/m 0 min 0 min 0,0 UV-I 0 W/m 0,0 km/h (0 Bft)
10.01.2013 17:48 5,8 C 4,6 C 89 % 0 lf 1011,1 hPa 0,0 l/m 0 min 0 min 0,0 UV-I 0 W/m 0,0 km/h (0 Bft)
10.01.2013 17:50 5,7 C 4,6 C 89 % 0 lf 1011,2 hPa 0,0 l/m 0 min 0 min 0,0 UV-I 0 W/m 0,0 km/h (0 Bft)
10.01.2013 17:52 5,7 C 4,6 C 89 % 0 lf 1011,1 hPa 0,0 l/m 0 min 0 min 0,0 UV-I 0 W/m 0,0 km/h (0 Bft)
10.01.2013 17:54 5,7 C 4,6 C 89 % 0 lf 1011,1 hPa 0,0 l/m 0 min 0 min 0,0 UV-I 0 W/m 0,0 km/h (0 Bft)
10.01.2013 17:56 5,7 C 4,6 C 89 % 0 lf 1011,1 hPa 0,0 l/m 0 min 0 min 0,0 UV-I 0 W/m 0,0 km/h (0 Bft)
10.01.2013 17:58 5,7 C 4,6 C 89 % 0 lf 1011,2 hPa 0,0 l/m 0 min 0 min 0,0 UV-I 0 W/m 0,0 km/h (0 Bft)
10.01.2013 18:00 5,7 C 4,6 C 89 % 0 lf 1011,0 hPa 0,0 l/m 0 min 0 min 0,0 UV-I 0 W/m 0,0 km/h (0 Bft)
10.01.2013 18:02 5,7 C 4,6 C 90 % 0 lf 1011,2 hPa 0,0 l/m 0 min 0 min 0,0 UV-I 0 W/m 7,7 km/h (2 Bft)
10.01.2013 18:04 5,7 C 4,6 C 90 % 0 lf 1011,2 hPa 0,0 l/m 0 min 0 min 0,0 UV-I 0 W/m 0,0 km/h (0 Bft)
10.01.2013 18:06 5,7 C 4,6 C 89 % 0 lf 1011,2 hPa 0,0 l/m 0 min 0 min 0,0 UV-I 0 W/m 0,0 km/h (0 Bft)
10.01.2013 18:08 5,7 C 4,6 C 90 % 0 lf 1011,3 hPa 0,0 l/m 0 min 0 min 0,0 UV-I 0 W/m 5,1 km/h (1 Bft)
10.01.2013 18:10 5,7 C 4,6 C 90 % 0 lf 1011,1 hPa 0,0 l/m 0 min 0 min 0,0 UV-I 0 W/m 5,1 km/h (1 Bft)
10.01.2013 18:12 5,7 C 4,6 C 90 % 0 lf 1011,2 hPa 0,0 l/m 0 min 0 min 0,0 UV-I 0 W/m 2,6 km/h (1 Bft)
10.01.2013 18:14 5,7 C 4,6 C 90 % 0 lf 1011,1 hPa 0,0 l/m 0 min 0 min 0,0 UV-I 0 W/m 0,0 km/h (0 Bft)
10.01.2013 18:16 5,7 C 4,6 C 90 % 0 lf 1011,1 hPa 0,0 l/m 0 min 0 min 0,0 UV-I 0 W/m 12,9 km/h (3 Bft)
10.01.2013 18:18 5,6 C 4,6 C 90 % 0 lf 1011,0 hPa 0,0 l/m 0 min 0 min 0,0 UV-I 0 W/m 10,3 km/h (2 Bft)
10.01.2013 18:20 5,6 C 4,6 C 90 % 0 lf 1010,9 hPa 0,0 l/m 0 min 0 min 0,0 UV-I 0 W/m 0,0 km/h (0 Bft)
10.01.2013 18:22 5,6 C 4,6 C 90 % 0 lf 1011,0 hPa 0,0 l/m 0 min 0 min 0,0 UV-I 0 W/m 2,6 km/h (1 Bft)
10.01.2013 18:24 5,6 C 4,6 C 90 % 0 lf 1011,0 hPa 0,0 l/m 0 min 0 min 0,0 UV-I 0 W/m 0,0 km/h (0 Bft)
10.01.2013 18:26 5,6 C 4,6 C 90 % 0 lf 1010,9 hPa 0,0 l/m 0 min 0 min 0,0 UV-I 0 W/m 0,0 km/h (0 Bft)
10.01.2013 18:28 5,6 C 4,6 C 90 % 0 lf 1010,9 hPa 0,0 l/m 0 min 0 min 0,0 UV-I 0 W/m 0,0 km/h (0 Bft)
10.01.2013 18:30 5,6 C 4,6 C 90 % 0 lf 1010,9 hPa 0,0 l/m 0 min 0 min 0,0 UV-I 0 W/m 0,0 km/h (0 Bft)
10.01.2013 18:32 5,6 C 4,6 C 90 % 0 lf 1010,9 hPa 0,0 l/m 0 min 0 min 0,0 UV-I 0 W/m 0,0 km/h (0 Bft)
10.01.2013 18:34 5,6 C 4,6 C 91 % 0 lf 1011,0 hPa 0,0 l/m 0 min 0 min 0,0 UV-I 0 W/m 5,1 km/h (1 Bft)
10.01.2013 18:36 5,6 C 4,6 C 90 % 0 lf 1011,0 hPa 0,0 l/m 0 min 0 min 0,0 UV-I 0 W/m 5,1 km/h (1 Bft)
10.01.2013 18:38 5,6 C 4,6 C 91 % 0 lf 1010,9 hPa 0,0 l/m 0 min 0 min 0,0 UV-I 0 W/m 0,0 km/h (0 Bft)
10.01.2013 18:40 5,6 C 4,6 C 91 % 0 lf 1010,8 hPa 0,0 l/m 0 min 0 min 0,0 UV-I 0 W/m 7,7 km/h (2 Bft)
10.01.2013 18:42 5,5 C 4,6 C 91 % 0 lf 1011,0 hPa 0,0 l/m 0 min 0 min 0,0 UV-I 0 W/m 2,6 km/h (1 Bft)
10.01.2013 18:44 5,5 C 4,0 C 91 % 0 lf 1011,0 hPa 0,0 l/m 0 min 0 min 0,0 UV-I 0 W/m 5,1 km/h (1 Bft)
10.01.2013 18:46 5,5 C 4,0 C 91 % 0 lf 1011,0 hPa 0,0 l/m 0 min 0 min 0,0 UV-I 0 W/m 10,3 km/h (2 Bft)
10.01.2013 18:48 5,5 C 4,0 C 91 % 0 lf 1010,9 hPa 0,0 l/m 0 min 0 min 0,0 UV-I 0 W/m 7,7 km/h (2 Bft)
10.01.2013 18:50 5,5 C 4,0 C 91 % 0 lf 1010,9 hPa 0,0 l/m 0 min 0 min 0,0 UV-I 0 W/m 5,1 km/h (1 Bft)
10.01.2013 18:52 5,5 C 4,0 C 91 % 0 lf 1010,8 hPa 0,0 l/m 0 min 0 min 0,0 UV-I 0 W/m 0,0 km/h (0 Bft)
10.01.2013 18:54 5,5 C 4,0 C 91 % 0 lf 1010,9 hPa 0,0 l/m 0 min 0 min 0,0 UV-I 0 W/m 7,7 km/h (2 Bft)
10.01.2013 18:56 5,5 C 4,0 C 91 % 0 lf 1010,8 hPa 0,0 l/m 0 min 0 min 0,0 UV-I 0 W/m 2,6 km/h (1 Bft)
10.01.2013 18:58 5,4 C 4,0 C 91 % 0 lf 1010,8 hPa 0,0 l/m 0 min 0 min 0,0 UV-I 0 W/m 0,0 km/h (0 Bft)
10.01.2013 19:00 5,4 C 4,0 C 92 % 0 lf 1010,9 hPa 0,0 l/m 0 min 0 min 0,0 UV-I 0 W/m 7,7 km/h (2 Bft)
10.01.2013 19:02 5,4 C 4,0 C 92 % 0 lf 1010,8 hPa 0,0 l/m 0 min 0 min 0,0 UV-I 0 W/m 0,0 km/h (0 Bft)
10.01.2013 19:04 5,4 C 4,0 C 92 % 0 lf 1010,8 hPa 0,0 l/m 0 min 0 min 0,0 UV-I 0 W/m 2,6 km/h (1 Bft)
10.01.2013 19:06 5,4 C 4,0 C 92 % 0 lf 1010,8 hPa 0,0 l/m 0 min 0 min 0,0 UV-I 0 W/m 5,1 km/h (1 Bft)
10.01.2013 19:08 5,4 C 4,0 C 92 % 0 lf 1010,8 hPa 0,0 l/m 0 min 0 min 0,0 UV-I 0 W/m 5,1 km/h (1 Bft)
10.01.2013 19:10 5,4 C 4,0 C 92 % 0 lf 1010,9 hPa 0,0 l/m 0 min 0 min 0,0 UV-I 0 W/m 0,0 km/h (0 Bft)
10.01.2013 19:12 5,4 C 4,6 C 92 % 0 lf 1010,9 hPa 0,0 l/m 0 min 0 min 0,0 UV-I 0 W/m 0,0 km/h (0 Bft)
10.01.2013 19:14 5,4 C 4,0 C 92 % 0 lf 1010,9 hPa 0,0 l/m 0 min 0 min 0,0 UV-I 0 W/m 5,1 km/h (1 Bft)
10.01.2013 19:16 5,4 C 4,0 C 92 % 0 lf 1010,9 hPa 0,0 l/m 0 min 0 min 0,0 UV-I 0 W/m 5,1 km/h (1 Bft)
10.01.2013 19:18 5,4 C 4,0 C 92 % 0 lf 1010,8 hPa 0,0 l/m 0 min 0 min 0,0 UV-I 0 W/m 5,1 km/h (1 Bft)
10.01.2013 19:20 5,4 C 4,0 C 92 % 0 lf 1010,8 hPa 0,0 l/m 0 min 0 min 0,0 UV-I 0 W/m 10,3 km/h (2 Bft)
10.01.2013 19:22 5,4 C 4,0 C 92 % 0 lf 1010,8 hPa 0,0 l/m 0 min 0 min 0,0 UV-I 0 W/m 0,0 km/h (0 Bft)
10.01.2013 19:24 5,4 C 4,0 C 92 % 0 lf 1010,9 hPa 0,0 l/m 0 min 0 min 0,0 UV-I 0 W/m 7,7 km/h (2 Bft)
10.01.2013 19:26 5,4 C 4,0 C 92 % 0 lf 1010,7 hPa 0,0 l/m 0 min 0 min 0,0 UV-I 0 W/m 2,6 km/h (1 Bft)
10.01.2013 19:28 5,4 C 4,0 C 92 % 0 lf 1010,7 hPa 0,0 l/m 0 min 0 min 0,0 UV-I 0 W/m 5,1 km/h (1 Bft)
10.01.2013 19:30 5,4 C 4,0 C 92 % 0 lf 1010,7 hPa 0,0 l/m 0 min 0 min 0,0 UV-I 0 W/m 5,1 km/h (1 Bft)
10.01.2013 19:32 5,4 C 4,0 C 92 % 0 lf 1010,7 hPa 0,0 l/m 0 min 0 min 0,0 UV-I 0 W/m 5,1 km/h (1 Bft)
10.01.2013 19:34 5,3 C 4,0 C 92 % 0 lf 1010,7 hPa 0,0 l/m 0 min 0 min 0,0 UV-I 0 W/m 5,1 km/h (1 Bft)
10.01.2013 19:36 5,3 C 4,0 C 92 % 0 lf 1010,7 hPa 0,0 l/m 0 min 0 min 0,0 UV-I 0 W/m 7,7 km/h (2 Bft)
10.01.2013 19:38 5,3 C 4,0 C 92 % 0 lf 1010,7 hPa 0,0 l/m 0 min 0 min 0,0 UV-I 0 W/m 2,6 km/h (1 Bft)
10.01.2013 19:40 5,3 C 4,0 C 92 % 0 lf 1010,7 hPa 0,0 l/m 0 min 0 min 0,0 UV-I 0 W/m 2,6 km/h (1 Bft)
10.01.2013 19:42 5,3 C 4,0 C 92 % 1 lf 1010,7 hPa 0,0 l/m 0 min 0 min 0,0 UV-I 0 W/m 5,1 km/h (1 Bft)
10.01.2013 19:44 5,3 C 4,0 C 92 % 1 lf 1010,7 hPa 0,0 l/m 0 min 0 min 0,0 UV-I 0 W/m 0,0 km/h (0 Bft)
10.01.2013 19:46 5,3 C 4,0 C 92 % 2 lf 1010,7 hPa 0,0 l/m 0 min 0 min 0,0 UV-I 0 W/m 5,1 km/h (1 Bft)
10.01.2013 19:48 5,3 C 4,0 C 93 % 0 lf 1010,7 hPa 0,0 l/m 0 min 0 min 0,0 UV-I 0 W/m 7,7 km/h (2 Bft)
10.01.2013 19:50 5,3 C 4,0 C 93 % 4 lf 1010,7 hPa 0,0 l/m 0 min 0 min 0,0 UV-I 0 W/m 7,7 km/h (2 Bft)
10.01.2013 19:52 5,3 C 4,0 C 93 % 3 lf 1010,7 hPa 0,0 l/m 0 min 0 min 0,0 UV-I 0 W/m 5,1 km/h (1 Bft)
10.01.2013 19:54 5,3 C 4,0 C 93 % 1 lf 1010,7 hPa 0,0 l/m 0 min 0 min 0,0 UV-I 0 W/m 7,7 km/h (2 Bft)
10.01.2013 19:56 5,3 C 4,0 C 93 % 0 lf 1010,6 hPa 0,0 l/m 0 min 0 min 0,0 UV-I 0 W/m 2,6 km/h (1 Bft)
10.01.2013 19:58 5,3 C 4,0 C 93 % 0 lf 1010,6 hPa 0,0 l/m 0 min 0 min 0,0 UV-I 0 W/m 2,6 km/h (1 Bft)
10.01.2013 20:00 5,3 C 4,0 C 93 % 2 lf 1010,6 hPa 0,0 l/m 0 min 0 min 0,0 UV-I 0 W/m 12,9 km/h (3 Bft)
10.01.2013 20:02 5,3 C 4,0 C 93 % 1 lf 1010,6 hPa 0,0 l/m 0 min 0 min 0,0 UV-I 0 W/m 5,1 km/h (1 Bft)
10.01.2013 20:04 5,3 C 4,0 C 93 % 0 lf 1010,6 hPa 0,0 l/m 0 min 0 min 0,0 UV-I 0 W/m 2,6 km/h (1 Bft)
10.01.2013 20:06 5,3 C 4,0 C 93 % 2 lf 1010,6 hPa 0,0 l/m 0 min 0 min 0,0 UV-I 0 W/m 0,0 km/h (0 Bft)
10.01.2013 20:08 5,3 C 4,0 C 93 % 10 lf 1010,6 hPa 0,0 l/m 0 min 0 min 0,0 UV-I 0 W/m 7,7 km/h (2 Bft)
10.01.2013 20:10 5,3 C 4,0 C 93 % 12 lf 1010,5 hPa 0,0 l/m 0 min 2 min 0,0 UV-I 0 W/m 0,0 km/h (0 Bft)
10.01.2013 20:12 5,2 C 4,0 C 93 % 13 lf 1010,6 hPa 0,0 l/m 0 min 2 min 0,0 UV-I 0 W/m 0,0 km/h (0 Bft)
10.01.2013 20:14 5,2 C 4,0 C 93 % 13 lf 1010,7 hPa 0,0 l/m 0 min 2 min 0,0 UV-I 0 W/m 2,6 km/h (1 Bft)
10.01.2013 20:16 5,2 C 4,0 C 93 % 10 lf 1010,7 hPa 0,0 l/m 0 min 0 min 0,0 UV-I 0 W/m 0,0 km/h (0 Bft)
10.01.2013 20:18 5,2 C 4,0 C 93 % 5 lf 1010,6 hPa 0,0 l/m 0 min 0 min 0,0 UV-I 0 W/m 12,9 km/h (3 Bft)
10.01.2013 20:20 5,2 C 4,0 C 93 % 3 lf 1010,6 hPa 0,0 l/m 0 min 0 min 0,0 UV-I 0 W/m 2,6 km/h (1 Bft)
10.01.2013 20:22 5,2 C 4,0 C 93 % 2 lf 1010,6 hPa 0,0 l/m 0 min 0 min 0,0 UV-I 0 W/m 5,1 km/h (1 Bft)
10.01.2013 20:24 5,2 C 4,0 C 93 % 4 lf 1010,7 hPa 0,0 l/m 0 min 0 min 0,0 UV-I 0 W/m 7,7 km/h (2 Bft)
10.01.2013 20:26 5,2 C 4,0 C 93 % 3 lf 1010,5 hPa 0,0 l/m 0 min 0 min 0,0 UV-I 0 W/m 7,7 km/h (2 Bft)
10.01.2013 20:28 5,2 C 4,0 C 93 % 2 lf 1010,6 hPa 0,0 l/m 0 min 0 min 0,0 UV-I 0 W/m 7,7 km/h (2 Bft)
10.01.2013 20:30 5,2 C 4,0 C 93 % 1 lf 1010,6 hPa 0,0 l/m 0 min 0 min 0,0 UV-I 0 W/m 2,6 km/h (1 Bft)
10.01.2013 20:32 5,2 C 4,0 C 93 % 1 lf 1010,6 hPa 0,0 l/m 0 min 0 min 0,0 UV-I 0 W/m 18,0 km/h (3 Bft)
10.01.2013 20:34 5,2 C 4,0 C 93 % 0 lf 1010,6 hPa 0,0 l/m 0 min 0 min 0,0 UV-I 0 W/m 15,4 km/h (3 Bft)
10.01.2013 20:36 5,2 C 4,0 C 93 % 0 lf 1010,6 hPa 0,0 l/m 0 min 0 min 0,0 UV-I 0 W/m 10,3 km/h (2 Bft)
10.01.2013 20:38 5,2 C 4,0 C 94 % 0 lf 1010,6 hPa 0,0 l/m 0 min 0 min 0,0 UV-I 0 W/m 7,7 km/h (2 Bft)
10.01.2013 20:40 5,2 C 4,0 C 94 % 0 lf 1010,5 hPa 0,0 l/m 0 min 0 min 0,0 UV-I 0 W/m 2,6 km/h (1 Bft)
10.01.2013 20:42 5,2 C 4,0 C 94 % 0 lf 1010,6 hPa 0,0 l/m 0 min 0 min 0,0 UV-I 0 W/m 12,9 km/h (3 Bft)
10.01.2013 20:44 5,2 C 4,0 C 94 % 0 lf 1010,6 hPa 0,0 l/m 0 min 0 min 0,0 UV-I 0 W/m 18,0 km/h (3 Bft)
10.01.2013 20:46 5,2 C 4,0 C 94 % 0 lf 1010,6 hPa 0,0 l/m 0 min 0 min 0,0 UV-I 0 W/m 7,7 km/h (2 Bft)
10.01.2013 20:48 5,2 C 4,0 C 94 % 0 lf 1010,7 hPa 0,0 l/m 0 min 0 min 0,0 UV-I 0 W/m 10,3 km/h (2 Bft)
10.01.2013 20:50 5,2 C 4,0 C 94 % 0 lf 1010,7 hPa 0,0 l/m 0 min 0 min 0,0 UV-I 0 W/m 10,3 km/h (2 Bft)
10.01.2013 20:52 5,2 C 4,0 C 94 % 0 lf 1010,7 hPa 0,0 l/m 0 min 0 min 0,0 UV-I 0 W/m 2,6 km/h (1 Bft)
10.01.2013 20:54 5,2 C 4,0 C 94 % 0 lf 1010,7 hPa 0,0 l/m 0 min 0 min 0,0 UV-I 0 W/m 0,0 km/h (0 Bft)
10.01.2013 20:56 5,2 C 4,0 C 94 % 0 lf 1010,7 hPa 0,0 l/m 0 min 0 min 0,0 UV-I 0 W/m 7,7 km/h (2 Bft)
10.01.2013 20:58 5,2 C 4,0 C 94 % 0 lf 1010,7 hPa 0,0 l/m 0 min 0 min 0,0 UV-I 0 W/m 0,0 km/h (0 Bft)
10.01.2013 21:00 5,2 C 4,0 C 94 % 0 lf 1010,8 hPa 0,0 l/m 0 min 0 min 0,0 UV-I 0 W/m 15,4 km/h (3 Bft)
10.01.2013 21:02 5,2 C 4,0 C 94 % 0 lf 1010,8 hPa 0,0 l/m 0 min 0 min 0,0 UV-I 0 W/m 5,1 km/h (1 Bft)
10.01.2013 21:04 5,2 C 4,0 C 94 % 0 lf 1010,7 hPa 0,0 l/m 0 min 0 min 0,0 UV-I 0 W/m 2,6 km/h (1 Bft)
10.01.2013 21:06 5,2 C 4,0 C 94 % 0 lf 1010,7 hPa 0,0 l/m 0 min 0 min 0,0 UV-I 0 W/m 0,0 km/h (0 Bft)
10.01.2013 21:08 5,2 C 4,0 C 94 % 0 lf 1010,7 hPa 0,0 l/m 0 min 0 min 0,0 UV-I 0 W/m 5,1 km/h (1 Bft)
10.01.2013 21:10 5,2 C 4,0 C 94 % 0 lf 1010,7 hPa 0,0 l/m 0 min 0 min 0,0 UV-I 0 W/m 7,7 km/h (2 Bft)
10.01.2013 21:12 5,2 C 4,0 C 94 % 0 lf 1010,7 hPa 0,0 l/m 0 min 0 min 0,0 UV-I 0 W/m 5,1 km/h (1 Bft)
10.01.2013 21:14 5,2 C 4,0 C 94 % 0 lf 1010,7 hPa 0,0 l/m 0 min 0 min 0,0 UV-I 0 W/m 0,0 km/h (0 Bft)
10.01.2013 21:16 5,2 C 4,0 C 94 % 0 lf 1010,8 hPa 0,0 l/m 0 min 0 min 0,0 UV-I 0 W/m 0,0 km/h (0 Bft)
10.01.2013 21:18 5,2 C 4,0 C 94 % 0 lf 1010,8 hPa 0,0 l/m 0 min 0 min 0,0 UV-I 0 W/m 7,7 km/h (2 Bft)
10.01.2013 21:20 5,2 C 4,0 C 94 % 0 lf 1010,8 hPa 0,0 l/m 0 min 0 min 0,0 UV-I 0 W/m 5,1 km/h (1 Bft)
10.01.2013 21:22 5,2 C 4,0 C 94 % 0 lf 1010,8 hPa 0,0 l/m 0 min 0 min 0,0 UV-I 0 W/m 7,7 km/h (2 Bft)
10.01.2013 21:24 5,2 C 4,0 C 94 % 0 lf 1010,8 hPa 0,0 l/m 0 min 0 min 0,0 UV-I 0 W/m 7,7 km/h (2 Bft)
10.01.2013 21:26 5,2 C 4,0 C 94 % 0 lf 1010,8 hPa 0,0 l/m 0 min 0 min 0,0 UV-I 0 W/m 7,7 km/h (2 Bft)
10.01.2013 21:28 5,2 C 4,0 C 94 % 0 lf 1010,8 hPa 0,0 l/m 0 min 0 min 0,0 UV-I 0 W/m 5,1 km/h (1 Bft)
10.01.2013 21:30 5,2 C 4,0 C 94 % 1 lf 1010,8 hPa 0,0 l/m 0 min 0 min 0,0 UV-I 0 W/m 10,3 km/h (2 Bft)
10.01.2013 21:32 5,2 C 4,0 C 94 % 15 lf 1010,8 hPa 0,0 l/m 0 min 2 min 0,0 UV-I 0 W/m 2,6 km/h (1 Bft)
10.01.2013 21:34 5,2 C 4,0 C 94 % 15 lf 1010,8 hPa 0,0 l/m 0 min 2 min 0,0 UV-I 0 W/m 0,0 km/h (0 Bft)
10.01.2013 21:36 5,2 C 4,0 C 95 % 15 lf 1010,8 hPa 0,0 l/m 0 min 2 min 0,0 UV-I 0 W/m 5,1 km/h (1 Bft)
10.01.2013 21:38 5,2 C 3,4 C 95 % 15 lf 1010,8 hPa 0,0 l/m 0 min 2 min 0,0 UV-I 0 W/m 12,9 km/h (3 Bft)
10.01.2013 21:40 5,2 C 3,4 C 95 % 15 lf 1010,8 hPa 0,0 l/m 0 min 2 min 0,0 UV-I 0 W/m 0,0 km/h (0 Bft)
10.01.2013 21:42 5,2 C 3,4 C 95 % 15 lf 1010,7 hPa 0,0 l/m 0 min 2 min 0,0 UV-I 0 W/m 0,0 km/h (0 Bft)
10.01.2013 21:44 5,2 C 3,4 C 95 % 15 lf 1010,7 hPa 0,0 l/m 0 min 2 min 0,0 UV-I 0 W/m 2,6 km/h (1 Bft)
10.01.2013 21:46 5,2 C 3,4 C 95 % 15 lf 1010,7 hPa 0,0 l/m 0 min 2 min 0,0 UV-I 0 W/m 10,3 km/h (2 Bft)
10.01.2013 21:48 5,2 C 3,4 C 95 % 15 lf 1010,7 hPa 0,0 l/m 0 min 2 min 0,0 UV-I 0 W/m 7,7 km/h (2 Bft)
10.01.2013 21:50 5,2 C 3,4 C 95 % 15 lf 1010,6 hPa 0,0 l/m 0 min 2 min 0,0 UV-I 0 W/m 0,0 km/h (0 Bft)
10.01.2013 21:52 5,2 C 3,4 C 95 % 15 lf 1010,6 hPa 0,0 l/m 0 min 2 min 0,0 UV-I 0 W/m 0,0 km/h (0 Bft)
10.01.2013 21:54 5,2 C 3,4 C 95 % 15 lf 1010,7 hPa 0,0 l/m 0 min 2 min 0,0 UV-I 0 W/m 5,1 km/h (1 Bft)
10.01.2013 21:56 5,2 C 3,4 C 95 % 15 lf 1010,8 hPa 0,0 l/m 0 min 2 min 0,0 UV-I 0 W/m 0,0 km/h (0 Bft)
10.01.2013 21:58 5,1 C 3,4 C 95 % 15 lf 1010,7 hPa 0,0 l/m 0 min 2 min 0,0 UV-I 0 W/m 2,6 km/h (1 Bft)
10.01.2013 22:00 5,1 C 3,4 C 95 % 15 lf 1010,8 hPa 0,0 l/m 0 min 2 min 0,0 UV-I 0 W/m 0,0 km/h (0 Bft)
10.01.2013 22:02 5,1 C 3,4 C 95 % 15 lf 1010,8 hPa 0,0 l/m 0 min 2 min 0,0 UV-I 0 W/m 5,1 km/h (1 Bft)
10.01.2013 22:04 5,1 C 3,4 C 95 % 15 lf 1010,7 hPa 0,0 l/m 0 min 2 min 0,0 UV-I 0 W/m 0,0 km/h (0 Bft)
10.01.2013 22:06 5,1 C 3,4 C 95 % 15 lf 1010,8 hPa 0,0 l/m 0 min 2 min 0,0 UV-I 0 W/m 7,7 km/h (2 Bft)
10.01.2013 22:08 5,1 C 3,4 C 95 % 15 lf 1010,8 hPa 0,0 l/m 0 min 2 min 0,0 UV-I 0 W/m 0,0 km/h (0 Bft)
10.01.2013 22:10 5,1 C 3,4 C 95 % 15 lf 1010,8 hPa 0,0 l/m 0 min 2 min 0,0 UV-I 0 W/m 0,0 km/h (0 Bft)
10.01.2013 22:12 5,1 C 3,4 C 95 % 15 lf 1010,8 hPa 0,0 l/m 0 min 2 min 0,0 UV-I 0 W/m 0,0 km/h (0 Bft)
10.01.2013 22:14 5,1 C 3,4 C 95 % 15 lf 1010,8 hPa 0,0 l/m 0 min 2 min 0,0 UV-I 0 W/m 0,0 km/h (0 Bft)
10.01.2013 22:16 5,1 C 3,4 C 96 % 15 lf 1010,8 hPa 0,0 l/m 0 min 2 min 0,0 UV-I 0 W/m 0,0 km/h (0 Bft)
10.01.2013 22:18 5,1 C 3,4 C 96 % 15 lf 1010,8 hPa 0,0 l/m 0 min 2 min 0,0 UV-I 0 W/m 2,6 km/h (1 Bft)
10.01.2013 22:20 5,1 C 3,4 C 96 % 15 lf 1010,8 hPa 0,0 l/m 0 min 2 min 0,0 UV-I 0 W/m 0,0 km/h (0 Bft)
10.01.2013 22:22 5,1 C 3,4 C 95 % 15 lf 1010,7 hPa 0,0 l/m 0 min 2 min 0,0 UV-I 0 W/m 0,0 km/h (0 Bft)
10.01.2013 22:24 5,1 C 3,4 C 96 % 15 lf 1010,7 hPa 0,0 l/m 0 min 2 min 0,0 UV-I 0 W/m 2,6 km/h (1 Bft)
10.01.2013 22:26 5,1 C 3,4 C 96 % 15 lf 1010,8 hPa 0,0 l/m 0 min 2 min 0,0 UV-I 0 W/m 12,9 km/h (3 Bft)
10.01.2013 22:28 5,1 C 3,4 C 96 % 15 lf 1010,9 hPa 0,0 l/m 0 min 2 min 0,0 UV-I 0 W/m 5,1 km/h (1 Bft)
10.01.2013 22:30 5,1 C 3,4 C 96 % 15 lf 1010,9 hPa 0,0 l/m 0 min 2 min 0,0 UV-I 0 W/m 0,0 km/h (0 Bft)
10.01.2013 22:32 5,1 C 3,4 C 96 % 15 lf 1010,9 hPa 0,0 l/m 0 min 2 min 0,0 UV-I 0 W/m 5,1 km/h (1 Bft)
10.01.2013 22:34 5,1 C 3,4 C 96 % 15 lf 1011,0 hPa 0,0 l/m 0 min 2 min 0,0 UV-I 0 W/m 2,6 km/h (1 Bft)
10.01.2013 22:36 5,1 C 3,4 C 96 % 15 lf 1011,1 hPa 0,2 l/m 0 min 2 min 0,0 UV-I 0 W/m 10,3 km/h (2 Bft)
10.01.2013 22:38 5,1 C 3,4 C 96 % 15 lf 1011,1 hPa 0,0 l/m 0 min 2 min 0,0 UV-I 0 W/m 0,0 km/h (0 Bft)
10.01.2013 22:40 5,1 C 3,4 C 96 % 15 lf 1011,1 hPa 0,0 l/m 0 min 2 min 0,0 UV-I 0 W/m 12,9 km/h (3 Bft)
10.01.2013 22:42 5,1 C 3,4 C 96 % 15 lf 1011,1 hPa 0,0 l/m 0 min 2 min 0,0 UV-I 0 W/m 7,7 km/h (2 Bft)
10.01.2013 22:44 5,1 C 3,4 C 96 % 15 lf 1011,1 hPa 0,2 l/m 0 min 2 min 0,0 UV-I 0 W/m 5,1 km/h (1 Bft)
10.01.2013 22:46 5,1 C 3,4 C 96 % 15 lf 1011,1 hPa 0,0 l/m 0 min 2 min 0,0 UV-I 0 W/m 10,3 km/h (2 Bft)
10.01.2013 22:48 5,1 C 3,4 C 96 % 15 lf 1011,1 hPa 0,0 l/m 0 min 2 min 0,0 UV-I 0 W/m 7,7 km/h (2 Bft)
10.01.2013 22:50 5,1 C 3,4 C 96 % 15 lf 1011,1 hPa 0,0 l/m 0 min 2 min 0,0 UV-I 0 W/m 10,3 km/h (2 Bft)
10.01.2013 22:52 5,0 C 3,4 C 96 % 15 lf 1011,1 hPa 0,0 l/m 0 min 2 min 0,0 UV-I 0 W/m 15,4 km/h (3 Bft)
10.01.2013 22:54 5,0 C 3,4 C 96 % 15 lf 1011,1 hPa 0,0 l/m 0 min 2 min 0,0 UV-I 0 W/m 10,3 km/h (2 Bft)
10.01.2013 22:56 5,0 C 3,4 C 96 % 15 lf 1011,1 hPa 0,2 l/m 0 min 2 min 0,0 UV-I 0 W/m 2,6 km/h (1 Bft)
10.01.2013 22:58 5,0 C 3,4 C 96 % 15 lf 1011,2 hPa 0,0 l/m 0 min 2 min 0,0 UV-I 0 W/m 15,4 km/h (3 Bft)
10.01.2013 23:00 4,9 C 3,4 C 96 % 15 lf 1011,2 hPa 0,0 l/m 0 min 2 min 0,0 UV-I 0 W/m 23,2 km/h (4 Bft)
10.01.2013 23:02 4,9 C 3,4 C 96 % 15 lf 1011,3 hPa 0,2 l/m 0 min 2 min 0,0 UV-I 0 W/m 10,3 km/h (2 Bft)
10.01.2013 23:04 4,8 C 2,9 C 96 % 15 lf 1011,3 hPa 0,0 l/m 0 min 2 min 0,0 UV-I 0 W/m 12,9 km/h (3 Bft)
10.01.2013 23:06 4,8 C 2,9 C 96 % 15 lf 1011,3 hPa 0,0 l/m 0 min 2 min 0,0 UV-I 0 W/m 10,3 km/h (2 Bft)
10.01.2013 23:08 4,7 C 2,9 C 96 % 15 lf 1011,4 hPa 0,0 l/m 0 min 2 min 0,0 UV-I 0 W/m 15,4 km/h (3 Bft)
10.01.2013 23:10 4,6 C 2,9 C 96 % 15 lf 1011,4 hPa 0,0 l/m 0 min 2 min 0,0 UV-I 0 W/m 10,3 km/h (2 Bft)
10.01.2013 23:12 4,5 C 2,9 C 96 % 15 lf 1011,4 hPa 0,0 l/m 0 min 2 min 0,0 UV-I 0 W/m 15,4 km/h (3 Bft)
10.01.2013 23:14 4,4 C 2,9 C 96 % 15 lf 1011,4 hPa 0,0 l/m 0 min 2 min 0,0 UV-I 0 W/m 10,3 km/h (2 Bft)
10.01.2013 23:16 4,3 C 2,3 C 96 % 15 lf 1011,5 hPa 0,0 l/m 0 min 2 min 0,0 UV-I 0 W/m 20,6 km/h (4 Bft)
10.01.2013 23:18 4,2 C 2,3 C 96 % 15 lf 1011,4 hPa 0,0 l/m 0 min 2 min 0,0 UV-I 0 W/m 18,0 km/h (3 Bft)
10.01.2013 23:20 4,0 C 2,3 C 96 % 15 lf 1011,5 hPa 0,0 l/m 0 min 2 min 0,0 UV-I 0 W/m 12,9 km/h (3 Bft)
10.01.2013 23:22 3,9 C 2,3 C 96 % 15 lf 1011,5 hPa 0,0 l/m 0 min 2 min 0,0 UV-I 0 W/m 10,3 km/h (2 Bft)
10.01.2013 23:24 3,9 C 2,3 C 96 % 15 lf 1011,5 hPa 0,0 l/m 0 min 2 min 0,0 UV-I 0 W/m 15,4 km/h (3 Bft)
10.01.2013 23:26 3,8 C 2,3 C 96 % 15 lf 1011,5 hPa 0,0 l/m 0 min 2 min 0,0 UV-I 0 W/m 12,9 km/h (3 Bft)
10.01.2013 23:28 3,8 C 2,3 C 96 % 15 lf 1011,6 hPa 0,0 l/m 0 min 2 min 0,0 UV-I 0 W/m 20,6 km/h (4 Bft)
10.01.2013 23:30 3,7 C 2,3 C 96 % 15 lf 1011,6 hPa 0,0 l/m 0 min 2 min 0,0 UV-I 0 W/m 15,4 km/h (3 Bft)
10.01.2013 23:32 3,7 C 2,3 C 96 % 15 lf 1011,8 hPa 0,0 l/m 0 min 2 min 0,0 UV-I 0 W/m 12,9 km/h (3 Bft)
10.01.2013 23:34 3,7 C 2,3 C 96 % 15 lf 1011,8 hPa 0,0 l/m 0 min 2 min 0,0 UV-I 0 W/m 5,1 km/h (1 Bft)
10.01.2013 23:36 3,6 C 2,3 C 96 % 15 lf 1011,7 hPa 0,2 l/m 0 min 2 min 0,0 UV-I 0 W/m 15,4 km/h (3 Bft)
10.01.2013 23:38 3,6 C 2,3 C 96 % 15 lf 1011,7 hPa 0,0 l/m 0 min 2 min 0,0 UV-I 0 W/m 10,3 km/h (2 Bft)
10.01.2013 23:40 3,6 C 2,3 C 96 % 15 lf 1011,8 hPa 0,0 l/m 0 min 2 min 0,0 UV-I 0 W/m 7,7 km/h (2 Bft)
10.01.2013 23:42 3,5 C 2,3 C 96 % 15 lf 1011,7 hPa 0,0 l/m 0 min 2 min 0,0 UV-I 0 W/m 5,1 km/h (1 Bft)
10.01.2013 23:44 3,5 C 2,3 C 96 % 15 lf 1011,8 hPa 0,0 l/m 0 min 2 min 0,0 UV-I 0 W/m 0,0 km/h (0 Bft)
10.01.2013 23:46 3,5 C 2,3 C 96 % 15 lf 1011,7 hPa 0,0 l/m 0 min 2 min 0,0 UV-I 0 W/m 7,7 km/h (2 Bft)
10.01.2013 23:48 3,4 C 2,3 C 96 % 15 lf 1012,0 hPa 0,0 l/m 0 min 2 min 0,0 UV-I 0 W/m 7,7 km/h (2 Bft)
10.01.2013 23:50 3,4 C 1,8 C 96 % 15 lf 1011,9 hPa 0,0 l/m 0 min 2 min 0,0 UV-I 0 W/m 7,7 km/h (2 Bft)
10.01.2013 23:52 3,3 C 1,8 C 96 % 15 lf 1011,9 hPa 0,0 l/m 0 min 2 min 0,0 UV-I 0 W/m 7,7 km/h (2 Bft)
10.01.2013 23:54 3,3 C 1,8 C 96 % 15 lf 1012,0 hPa 0,0 l/m 0 min 2 min 0,0 UV-I 0 W/m 0,0 km/h (0 Bft)
10.01.2013 23:56 3,2 C 1,8 C 96 % 15 lf 1011,9 hPa 0,0 l/m 0 min 2 min 0,0 UV-I 0 W/m 10,3 km/h (2 Bft)
10.01.2013 23:58 3,2 C 1,8 C 96 % 15 lf 1012,0 hPa 0,0 l/m 0 min 2 min 0,0 UV-I 0 W/m 10,3 km/h (2 Bft)
_ Min-Zeit 23:56 23:50 14:42 05:48 20:10 - - - - - 00:03
Minimum _ 3,2 C 1,8 C 83 % 0 lf 1010,5 hPa - - - - - 0,0 km/h (0 Bft)
_ Max-Zeit 14:38 14:12 00:03 00:03 00:03 22:36 12:24 00:03 00:03 12:26 23:00
Maximum _ 7,3 C 6,8 C 100 % 15 lf 1016,7 hPa 0,2 l/m 2 min 2 min 0,0 UV-I 313 W/m 23,2 km/h
W (4 Bft)
Durchschnitt _ 5,0 C 3,9 C 95 % 4 lf 1013,1 hPa #1,0 l/m #1:30 h #4:53 h 0,0 UV-I 84 W/m 4,8 km/h (1 Bft)
© 2012 W. Hausmann